GFSMW_prec_cloud_003.txt.gz
Cloud_Cover
98 70 48 67 56 53 25 72 41 82 22 19 4 58 100 99 19 17 5 3 1 4 5 44 5 5 5 1 5 5 5 7 8 5 5 0 0 0 0 0 0 5 5
60 46 69 75 34 49 93 59 41 9 9 64 0 0 0 0 0 0 0 0 0 2 0 0 0 0 4 6 27 7 7 5 2 2 4 2 1 1 0 0 0 0 0
6 37 28 20 26 14 4 3 3 63 5 1 1 0 0 0 0 0 0 0 0 0 0 0 5 5 9 19 17 5 0 0 0 0 0 0 0 5 0 0 2 2 0
4 2 5 15 86 93 5 16 32 34 1 4 0 0 0 0 0 0 0 0 0 0 0 5 5 5 5 1 0 0 0 0 0 0 5 0 4 0 0 0 0 0 0
5 6 5 5 5 92 30 44 5 38 0 0 0 0 0 0 0 0 0 0 0 3 5 5 5 5 0 0 0 0 0 9 8 86 92 60 50 5 3 0 0 0 0
70 63 5 5 7 82 52 0 5 5 5 5 5 4 1 2 3 5 0 2 3 0 0 0 0 0 1 3 58 8 63 31 5 80 45 7 49 96 78 5 2 0 0
86 86 23 28 90 7 1 0 5 5 5 5 5 5 5 5 5 4 0 0 0 0 0 2 3 5 6 79 99 100 5 53 88 5 5 5 5 3 12 30 21 3 4
12 27 99 100 8 1 5 5 5 5 5 5 5 5 5 5 5 2 1 2 3 5 5 5 13 10 5 21 96 19 76 5 27 40 14 11 5 93 99 73 100 82 6
5 15 75 0 0 0 5 5 5 7 13 64 9 30 49 39 52 7 5 5 5 5 56 75 7 11 99 51 97 17 0 0 1 5 33 5 4 4 2 3 5 79 10
5 2 0 2 0 3 5 5 19 67 46 31 80 96 95 44 5 5 5 26 63 67 6 5 52 100 28 5 0 0 4 0 3 1 0 0 0 0 1 5 5 5 5
1 1 2 5 5 12 45 5 82 100 5 84 100 58 5 5 10 36 70 56 74 6 5 47 97 5 9 50 5 5 4 5 0 0 0 0 1 5 5 5 5 6 81
0 4 5 48 81 98 69 97 94 5 77 99 100 40 61 91 100 99 30 6 4 5 5 70 39 40 78 6 94 6 5 0 0 0 0 5 5 5 5 5 70 100 100
4 9 81 97 83 81 100 100 10 96 100 48 99 95 99 72 7 5 5 5 5 5 5 7 50 82 75 96 56 5 5 2 0 0 0 5 5 5 68 100 100 100 100
9 36 94 100 100 100 84 97 82 35 5 24 20 6 20 5 5 5 5 28 52 18 5 48 80 42 59 17 9 11 5 3 0 1 5 5 35 76 100 100 100 100 100
100 98 60 99 82 95 56 5 5 5 5 5 5 5 5 26 34 56 96 100 50 25 5 53 5 14 70 91 29 5 5 5 5 5 5 5 88 82 100 100 100 100 100
94 40 88 96 93 5 5 5 5 5 5 10 8 15 46 97 100 100 100 61 52 5 5 7 7 99 100 99 7 63 5 0 0 1 5 5 5 57 96 98 98 100 100
9 43 86 98 72 5 9 13 5 25 50 67 85 99 100 100 100 98 93 64 4 5 5 5 5 27 17 72 100 10 1 1 5 2 3 5 23 65 100 100 94 99 100
27 38 98 100 52 42 78 24 74 63 96 100 100 100 100 97 86 40 22 4 0 3 5 84 18 65 7 23 2 4 0 0 5 5 20 78 100 100 100 100 100 100 100
82 100 100 100 100 89 59 100 93 100 100 100 100 100 100 72 56 10 0 0 0 5 5 5 49 6 5 5 5 0 4 5 5 25 89 100 100 100 100 100 100 100 100
100 100 100 100 91 99 100 100 100 100 100 100 90 100 78 26 5 5 5 5 0 3 5 5 5 5 5 5 5 3 5 5 5 5 18 100 100 100 99 100 100 100 100
100 100 100 100 100 100 100 100 100 100 100 83 89 97 16 37 5 2 5 5 5 5 3 5 3 5 5 5 4 5 5 33 28 5 5 71 97 76 82 96 100 100 100
100 100 100 100 100 100 100 100 96 100 90 78 65 40 100 8 0 0 5 25 5 5 5 5 8 5 5 5 0 5 5 5 26 5 5 46 15 16 70 91 98 89 99
100 100 100 100 100 100 88 95 95 76 96 63 56 99 7 5 0 5 60 98 96 87 8 74 11 54 5 5 0 4 5 5 5 5 5 5 5 5 67 84 98 96 97
100 100 100 100 100 100 93 28 93 90 81 89 94 25 38 5 5 6 74 78 90 72 43 5 5 5 5 5 5 5 5 5 5 5 5 4 5 5 5 5 24 71 100
100 100 100 100 100 100 100 100 100 99 91 89 29 68 100 85 23 25 97 95 70 30 5 5 5 5 5 5 5 5 78 90 44 5 5 5 5 5 5 19 59 80 92
100 100 100 100 100 100 100 94 92 95 96 90 5 74 100 100 100 100 88 67 58 8 5 5 5 5 5 5 5 5 12 5 5 5 5 15 5 5 5 5 15 85 98

GFSMW_prec_cloud_006.txt.gz
Cloud_Cover
99 98 75 65 59 54 56 62 55 17 5 11 16 12 8 3 5 5 0 0 0 0 0 0 0 0 0 0 4 5 5 5 4 5 4 1 5 78 100 100 65 54 62
9 40 31 39 35 5 5 7 46 21 5 5 5 5 4 0 0 0 0 0 0 0 0 0 0 0 0 5 5 5 5 5 5 12 71 90 69 8 6 17 5 5 17
5 18 30 15 26 76 67 60 5 5 6 73 0 0 0 0 0 2 2 0 0 0 0 0 0 0 5 5 0 3 5 5 5 34 5 2 0 0 0 2 3 5 4
5 51 50 36 22 5 5 5 45 17 6 0 0 0 5 3 5 5 5 5 4 0 0 0 0 0 0 0 1 5 5 2 0 2 4 5 4 5 5 5 75 5 2
5 5 6 100 5 5 7 77 56 10 0 5 5 5 5 5 5 5 5 5 5 5 0 0 0 0 0 1 0 0 2 5 5 5 4 5 5 6 62 32 90 90 43
0 5 5 20 90 5 5 7 0 0 5 5 5 5 5 5 22 5 5 5 5 1 0 0 0 0 0 1 16 5 18 20 100 75 5 24 84 97 100 94 46 5 1
5 5 40 53 5 5 5 1 5 5 5 5 12 43 6 22 8 5 5 2 0 0 0 0 3 13 38 69 58 75 45 61 86 92 79 95 100 100 100 100 41 5 2
5 3 5 5 5 5 7 4 5 5 5 5 15 100 39 5 8 58 40 0 5 5 5 42 48 8 84 76 87 100 99 97 94 79 97 100 100 100 100 100 100 44 5
4 3 5 5 5 3 4 4 5 9 33 44 93 100 10 7 76 7 5 5 9 27 8 10 28 100 100 94 100 89 97 98 41 100 100 100 100 100 90 100 100 100 30
5 5 5 5 2 5 5 7 70 100 100 100 78 5 7 76 5 8 42 23 30 5 12 34 74 48 66 99 98 98 100 92 98 100 100 96 17 69 100 100 100 100 100
5 5 3 4 5 5 63 100 100 100 82 79 87 41 18 38 10 5 5 5 5 5 5 5 5 41 93 100 60 96 100 100 100 100 100 100 100 100 100 100 100 100 100
5 5 5 27 96 99 100 100 100 86 86 100 74 30 16 5 5 5 5 5 23 32 5 5 5 83 94 85 53 100 100 100 100 100 100 100 92 100 100 100 100 100 100
5 5 58 100 100 100 100 100 87 99 100 5 17 23 5 5 5 5 13 53 65 46 5 5 45 23 91 44 99 100 66 99 60 35 79 75 62 64 80 99 100 100 100
12 92 100 86 100 99 84 83 79 99 8 5 9 62 57 19 5 24 33 76 85 16 12 85 76 40 5 15 88 69 79 38 62 65 44 16 31 49 54 45 99 100 100
100 100 50 5 24 99 98 81 100 32 29 20 97 82 36 24 93 94 99 100 32 5 89 24 5 8 24 95 100 100 99 97 37 5 4 2 4 2 46 46 100 100 100
99 76 100 96 11 93 100 100 91 82 99 74 100 93 42 93 78 100 100 71 7 13 92 96 52 94 53 8 6 74 90 42 5 0 0 0 5 42 6 82 89 43 100
46 86 100 49 68 100 100 100 79 76 81 100 100 46 76 99 100 100 71 19 50 27 87 95 64 52 69 5 5 1 0 4 0 0 0 5 11 94 100 100 99 100 100
96 100 100 100 100 100 100 100 100 100 100 100 98 89 100 100 100 98 22 17 5 16 78 98 28 20 5 4 3 5 5 0 0 1 5 5 64 100 75 100 100 100 100
100 100 100 99 43 90 82 100 100 100 100 100 100 100 100 100 99 51 55 5 61 40 100 27 5 5 5 5 5 5 5 5 5 5 5 5 25 50 59 100 100 100 100
100 100 92 35 84 95 100 100 100 100 100 100 100 100 100 99 70 42 7 5 59 29 3 0 4 5 5 5 5 5 5 21 5 5 2 3 17 45 84 95 100 100 100
97 41 42 87 98 100 100 100 100 100 100 100 100 86 94 82 66 14 20 5 76 78 5 5 5 5 4 5 5 5 4 5 5 5 5 5 9 18 19 16 94 80 92
11 20 74 95 100 100 100 100 100 100 100 94 97 100 87 65 60 96 7 49 48 95 57 55 5 5 16 5 5 0 4 4 18 33 44 22 5 5 5 5 10 70 62
79 82 84 99 100 100 100 100 100 100 100 100 100 100 100 100 99 72 26 94 87 27 5 5 80 96 100 99 15 0 1 5 5 51 10 5 5 5 2 2 5 17 81
66 100 96 100 100 100 100 100 100 100 100 100 100 100 100 100 96 51 81 94 93 90 10 83 98 96 100 100 100 98 100 98 92 97 37 9 5 9 18 45 44 72 34
65 94 100 100 99 100 100 100 100 100 100 100 100 100 100 54 94 80 84 92 96 81 99 99 96 48 80 100 62 40 73 86 78 5 98 100 100 98 99 93 79 67 10
100 100 100 100 100 100 100 100 100 100 100 100 100 100 100 100 100 100 100 92 38 12 5 5 5 5 5 5 5 5 5 5 5 80 100 100 100 100 100 100 100 100 35

GFSMW_prec_cloud_009.txt.gz
Cloud_Cover
91 37 20 29 38 26 16 16 8 49 80 47 17 36 100 64 10 5 0 0 0 0 0 0 0 0 0 0 0 5 5 5 0 2 5 5 0 0 1 46 64 95 74
8 31 29 13 22 60 88 80 61 83 90 89 36 5 2 0 0 0 0 0 5 2 0 0 0 0 0 0 1 5 5 5 0 0 5 5 70 11 5 5 3 0 27
11 5 5 11 61 59 81 93 42 8 54 64 19 0 0 0 1 2 2 3 0 2 3 0 0 0 0 4 0 5 5 5 5 5 5 5 5 5 4 4 2 2 19
4 18 51 96 100 100 31 5 5 5 5 4 0 0 9 22 3 5 5 5 5 5 5 4 0 0 2 2 4 5 4 5 5 5 6 12 30 22 5 4 10 14 8
28 10 72 88 28 5 5 6 5 5 5 0 0 0 4 5 6 5 5 5 5 5 5 0 0 0 0 4 5 5 5 5 6 22 67 17 55 55 12 32 85 84 95
18 29 13 3 5 5 5 5 5 5 0 0 0 3 5 12 98 64 16 5 5 4 0 0 0 0 0 5 5 81 47 94 92 100 76 9 69 73 98 93 50 79 67
0 0 0 3 5 5 5 5 5 0 1 3 5 5 5 97 62 100 13 5 5 2 0 0 2 1 5 6 5 22 100 95 100 100 38 78 85 84 100 100 100 82 92
0 0 0 0 0 5 5 5 5 5 0 0 5 5 52 93 99 9 5 5 5 5 5 4 5 5 70 49 18 14 32 94 87 47 56 98 84 100 100 100 98 10 70
0 0 0 0 1 5 5 5 5 3 5 5 5 56 67 100 86 6 5 5 5 5 5 5 5 28 68 18 11 22 26 100 46 84 100 91 100 97 100 100 97 98 9
4 0 5 5 5 5 5 5 5 28 50 25 13 7 98 98 77 21 5 5 5 5 5 21 74 22 100 36 30 99 62 100 99 73 99 96 100 98 100 100 98 100 34
5 5 5 5 5 5 5 5 5 11 5 94 7 51 98 99 5 5 5 5 5 5 15 69 82 28 78 99 79 92 24 99 91 41 99 100 95 100 100 100 100 100 100
5 5 5 5 5 19 63 40 5 5 56 90 44 88 100 7 13 6 11 48 8 40 98 100 99 78 99 81 49 86 70 41 100 100 90 63 99 100 100 100 100 96 98
3 5 5 5 100 96 5 5 15 38 78 85 86 99 67 22 14 27 95 26 30 100 100 100 91 100 100 95 96 93 95 100 99 100 75 100 100 21 32 21 9 10 64
3 5 5 94 100 5 11 62 62 78 94 84 99 68 80 22 58 97 64 58 100 100 100 100 89 51 94 100 98 100 100 93 99 100 98 92 5 5 5 4 5 66 100
5 5 67 100 24 5 71 86 98 95 100 100 100 100 79 100 100 99 100 100 100 100 100 100 83 69 100 92 9 13 22 99 97 76 17 5 5 0 0 4 44 100 100
5 22 96 27 5 23 46 100 100 100 100 100 100 100 100 100 100 100 100 100 100 58 40 100 100 87 100 30 5 0 0 4 5 6 5 5 25 63 5 80 99 6 86
79 30 5 10 53 51 99 84 100 100 100 100 100 100 100 100 100 100 99 33 5 8 98 100 92 96 78 5 0 0 3 5 30 23 5 5 20 46 82 66 5 52 99
24 5 30 10 30 52 88 74 99 70 99 100 100 100 100 100 100 100 78 85 75 89 100 96 92 83 64 5 0 4 5 14 47 6 5 5 32 27 5 5 5 79 100
5 6 12 54 71 42 16 44 100 100 96 100 100 100 100 100 100 100 99 100 100 81 100 100 78 92 82 5 0 5 3 31 55 24 6 5 2 5 0 5 67 73 92
11 32 54 42 5 6 82 100 100 100 100 100 100 100 100 100 100 100 100 100 99 100 100 100 97 81 54 5 0 1 5 10 62 55 68 38 1 0 5 5 5 91 84
31 94 52 44 89 86 98 100 100 100 100 96 100 100 100 100 100 100 100 100 100 100 100 100 100 68 12 20 4 5 5 7 5 5 37 100 20 5 5 5 32 64 5
99 96 93 100 100 100 100 100 90 100 100 100 100 100 100 100 100 100 100 100 100 100 89 88 94 92 34 5 5 4 4 2 5 12 78 73 4 5 5 5 5 0 19
30 40 24 95 100 100 80 100 100 100 100 100 100 100 100 100 100 100 100 100 79 91 100 100 99 99 52 58 6 5 5 2 5 64 43 5 5 5 10 90 5 6 100
43 22 7 39 95 57 100 100 100 100 100 100 100 100 100 100 100 100 100 46 97 100 100 100 100 99 81 85 100 19 33 16 13 86 97 27 13 10 17 62 100 100 100
5 11 70 100 100 100 100 100 100 100 100 100 100 100 100 100 100 100 100 96 68 100 80 90 84 60 5 51 7 59 96 97 85 7 34 98 100 100 96 100 100 100 100
90 100 100 100 100 100 100 100 100 100 100 100 100 100 100 100 100 100 83 100 100 25 5 6 5 5 5 5 1 0 5 5 5 48 99 99 98 100 100 98 100 100 100

GFSMW_prec_cloud_012.txt.gz
Cloud_Cover
97 100 100 86 33 24 5 6 8 81 68 80 100 100 77 66 38 44 30 4 1 0 0 0 0 0 0 0 0 0 0 0 0 0 0 0 0 0 0 0 0 0 6
5 5 5 5 5 6 51 24 16 18 46 83 6 5 5 6 4 0 0 0 0 0 0 0 0 0 0 0 0 0 0 0 5 0 0 0 0 0 0 0 0 0 3
4 5 5 21 65 100 100 49 100 5 23 5 5 5 0 0 0 0 0 0 3 4 2 0 0 0 0 0 0 0 0 5 5 2 3 2 4 5 0 0 0 1 2
5 4 2 16 35 100 100 52 94 25 5 5 5 1 0 0 0 0 4 4 5 5 5 4 0 0 0 0 0 0 0 2 5 5 4 5 9 5 2 1 0 0 4
2 5 5 100 100 100 100 100 31 5 5 5 5 0 0 0 0 4 5 5 8 41 34 5 0 0 0 0 0 2 5 5 5 5 5 6 56 8 12 2 0 0 0
4 11 12 41 26 89 28 11 0 5 5 5 2 0 0 0 0 5 21 90 14 5 5 5 5 5 5 5 3 5 5 5 22 8 89 92 74 87 37 5 1 0 0
0 37 83 65 100 70 0 0 0 4 5 5 3 5 5 5 5 5 5 56 100 42 5 5 5 5 5 5 5 5 5 5 5 5 5 17 5 5 2 5 5 5 0
29 25 78 82 14 0 0 0 0 5 5 18 78 48 6 5 5 9 36 94 100 73 5 5 5 5 5 8 50 5 5 42 10 15 76 53 4 48 5 5 5 2 4
3 0 25 0 0 0 0 0 0 15 100 100 11 5 5 8 8 93 96 100 27 6 5 5 5 6 5 5 5 24 12 9 66 98 73 94 2 5 29 34 6 5 5
0 0 0 0 0 5 5 4 5 52 100 78 5 5 24 77 74 92 90 100 65 5 5 5 15 5 5 56 57 9 99 89 11 68 100 79 5 77 84 6 5 51 65
0 0 0 0 0 0 1 5 7 100 100 8 5 5 62 85 91 97 100 94 5 5 5 5 5 14 82 87 6 14 36 69 24 99 95 28 34 100 5 3 5 5 5
0 0 0 3 5 5 5 29 100 94 6 5 5 41 88 100 100 45 59 5 5 5 8 6 5 81 69 92 5 3 5 18 44 5 61 49 6 68 5 5 4 0 0
0 0 5 5 2 2 1 45 5 5 5 5 77 90 82 100 82 100 65 5 8 86 50 5 5 92 16 5 5 8 92 64 99 57 30 4 51 5 3 0 0 0 0
4 2 4 5 5 5 29 5 5 5 5 5 84 100 98 100 100 41 76 40 58 81 60 35 25 57 75 6 20 59 90 49 28 23 5 5 5 3 0 0 0 0 3
4 5 5 81 92 94 7 5 5 5 5 56 100 100 100 93 100 90 63 80 100 94 65 91 94 98 97 100 98 100 100 92 3 4 5 5 2 0 0 0 3 5 5
5 5 5 5 5 5 5 12 17 5 5 75 100 100 99 100 67 100 95 100 82 100 98 100 100 100 100 100 100 100 100 100 5 4 2 0 0 5 5 5 5 5 5
14 5 5 21 31 5 5 5 5 5 5 61 100 100 96 98 100 100 100 100 100 100 100 100 100 100 100 100 100 100 100 3 5 5 4 2 5 5 5 0 0 0 3
5 25 99 37 5 4 4 5 5 5 3 97 100 90 100 95 100 100 100 100 100 99 100 100 100 100 100 100 100 100 20 2 4 5 2 5 5 5 0 0 0 2 3
38 100 42 5 5 5 5 5 5 5 68 97 92 100 100 100 100 100 100 100 100 100 100 100 100 100 100 100 100 13 100 3 5 5 5 5 5 0 0 0 4 5 0
75 5 5 5 5 20 67 19 83 100 97 100 100 100 100 100 100 100 100 100 100 100 100 100 100 100 100 100 100 99 5 5 5 5 5 5 5 5 4 5 5 5 5
5 6 5 43 47 75 92 100 100 100 72 100 100 100 100 100 100 100 100 100 100 100 100 100 100 100 100 100 56 5 4 5 5 5 5 50 18 5 5 5 5 4 5
45 18 79 27 5 25 93 97 88 90 91 89 100 100 100 100 100 100 100 100 100 100 100 100 99 100 100 65 71 38 5 2 5 5 5 5 5 3 5 4 3 5 5
54 98 12 5 5 5 50 100 100 96 100 100 100 100 100 100 100 100 100 100 100 100 100 100 100 100 11 82 86 5 5 5 5 5 5 5 5 5 5 6 69 59 5
25 56 86 28 52 96 100 100 100 100 100 100 100 100 100 100 100 100 100 100 100 100 100 85 72 100 99 97 6 5 5 12 5 5 77 52 5 6 5 5 38 78 90
11 56 86 97 94 100 100 100 100 100 100 100 100 100 100 100 100 100 100 100 100 100 100 100 67 44 100 84 21 5 13 76 50 52 29 5 5 42 78 24 65 60 17
100 100 97 84 48 74 97 88 94 100 100 100 100 100 100 100 100 100 100 100 100 100 70 16 7 96 100 98 18 84 61 21 36 5 5 5 5 5 36 5 5 52 46

GFSMW_prec_cloud_018.txt.gz
Cloud_Cover
100 100 100 81 100 47 14 2 0 1 12 40 45 74 100 82 52 88 93 72 81 85 97 62 5 5 5 18 4 0 0 0 0 0 0 0 0 0 0 0 0 0 0
69 71 21 6 36 7 5 53 18 5 5 5 98 92 14 5 5 13 48 62 27 6 5 5 5 5 4 1 30 13 4 0 0 0 0 0 0 0 0 0 0 0 0
84 9 43 37 5 5 5 38 36 18 5 5 5 17 44 32 47 29 10 5 5 3 2 0 3 0 1 5 41 0 0 0 0 0 0 5 3 4 5 3 0 2 1
16 98 98 87 4 0 0 0 5 78 21 3 5 5 5 5 5 5 0 0 0 4 4 5 5 5 3 5 5 2 0 0 0 2 5 5 14 7 5 4 5 0 0
3 5 32 11 1 0 0 0 2 4 23 53 4 1 5 3 5 5 3 0 3 5 5 5 5 5 5 0 0 0 0 0 4 3 5 5 5 3 61 66 18 5 5
72 99 44 4 5 2 1 96 99 100 100 100 7 3 5 5 57 100 30 12 18 67 83 68 78 27 62 55 3 2 1 0 0 3 5 4 5 4 4 5 4 0 12
22 12 2 1 3 4 33 5 6 98 100 100 96 3 5 18 85 99 91 10 16 76 100 97 75 97 90 32 71 29 5 1 5 5 5 5 48 5 5 5 5 5 4
4 13 46 5 0 3 6 0 0 97 100 100 94 78 23 66 86 83 68 80 99 95 12 100 93 49 68 6 98 10 70 9 5 31 68 74 66 24 8 89 48 5 9
1 6 26 5 53 56 5 0 5 5 96 100 47 85 93 99 89 91 97 100 85 99 100 84 82 99 90 6 5 15 5 5 5 30 16 100 100 100 100 100 85 93 50
0 2 4 4 5 1 0 1 27 64 27 12 20 71 83 98 100 69 85 98 90 96 54 70 87 100 100 97 44 6 5 5 9 44 73 81 24 59 100 100 100 100 99
1 0 6 10 5 5 5 4 20 19 39 4 9 17 95 100 100 100 100 100 79 32 93 68 99 93 100 100 75 95 67 90 93 100 100 100 100 100 100 100 100 100 99
0 3 5 5 5 5 5 5 5 4 5 5 5 49 86 100 62 78 84 73 98 70 97 99 100 95 100 100 97 54 59 36 66 63 70 100 100 100 100 100 100 96 14
0 4 0 1 5 5 5 3 18 23 5 7 75 100 100 78 51 90 76 38 17 77 76 99 96 99 100 100 99 80 48 77 100 100 100 100 100 99 100 96 99 81 0
5 0 3 5 5 14 16 70 76 87 100 83 52 100 43 98 100 100 49 42 26 17 70 98 100 100 100 100 100 100 59 58 87 54 96 99 95 46 10 1 0 0 0
0 3 5 8 5 6 8 23 63 90 70 32 46 24 100 100 100 100 100 17 8 80 94 100 100 88 80 100 100 100 100 100 100 100 100 100 5 5 4 0 0 0 4
5 1 0 3 5 5 5 14 25 65 6 25 9 100 100 100 100 100 99 50 23 99 100 100 85 100 100 100 100 100 100 100 100 100 100 87 12 5 6 0 0 0 2
5 5 5 4 0 0 0 0 5 5 5 5 33 100 100 100 100 94 64 68 96 100 100 100 100 97 100 100 100 100 100 100 100 100 5 5 5 0 0 0 0 0 0
5 5 0 5 5 5 5 5 15 5 5 5 56 100 100 100 96 90 94 100 100 100 100 100 100 100 100 100 100 100 100 100 65 5 5 5 1 0 0 4 1 0 0
34 5 5 5 5 6 85 100 43 5 5 19 60 42 50 70 100 93 100 100 100 100 100 100 100 100 100 100 100 100 100 100 43 8 47 0 0 0 0 5 5 2 0
5 5 5 5 6 94 97 8 14 5 17 57 70 20 100 100 100 100 100 100 100 100 100 100 100 100 100 100 100 100 100 19 5 5 0 0 0 0 2 5 5 6 3
8 76 56 12 100 99 7 5 30 99 92 98 100 100 100 100 100 100 100 100 99 100 100 100 100 100 100 79 18 39 71 5 5 5 5 5 0 0 6 42 5 5 3
75 63 91 100 98 61 18 7 75 100 100 100 100 100 100 100 100 100 100 93 84 100 100 100 100 28 5 5 9 5 5 5 5 5 5 5 5 5 17 68 40 5 5
68 93 100 100 88 48 73 73 84 99 100 100 100 100 100 100 100 100 100 99 100 77 14 8 11 3 5 66 95 95 19 5 5 5 4 5 5 5 28 72 68 5 5
86 100 100 100 66 58 100 100 100 100 100 100 100 100 100 100 100 100 76 30 5 4 5 5 5 4 5 80 100 100 100 53 5 5 16 5 5 5 26 53 52 5 5
100 100 100 86 81 79 30 98 100 100 100 100 100 100 100 100 98 58 90 5 3 1 5 5 5 17 14 5 35 100 100 100 82 100 95 73 72 8 10 16 19 6 5
91 99 87 72 9 9 81 100 98 100 100 100 100 100 100 100 84 82 10 4 0 0 32 93 100 98 6 5 5 7 100 100 100 100 78 40 30 25 8 37 35 31 5

GFSMW_prec_cloud_021.txt.gz
Cloud_Cover
100 100 100 100 100 100 100 100 100 100 100 100 100 100 100 100 100 100 100 100 100 39 97 98 22 5 6 36 25 2 0 0 0 0 0 0 0 0 0 0 0 0 0
50 81 100 100 100 100 100 100 100 100 100 100 98 97 93 88 14 20 24 5 12 29 6 5 5 5 2 0 0 0 0 0 0 0 0 0 0 0 0 0 0 0 0
5 7 78 100 100 100 100 38 13 7 13 5 4 5 5 5 5 24 67 36 5 5 4 1 0 0 0 4 1 2 3 12 5 0 0 0 2 1 2 0 3 5 13
20 5 5 30 70 14 54 92 40 14 5 5 4 5 5 5 49 86 72 81 5 5 5 5 5 5 5 12 68 92 69 17 5 34 5 5 6 9 8 2 4 5 6
60 27 5 5 85 69 12 35 33 3 0 8 6 6 22 5 32 97 96 43 5 5 5 5 5 5 5 52 66 71 90 27 5 9 5 5 5 5 5 5 4 5 42
71 79 8 17 32 6 0 1 2 2 100 100 100 69 5 11 5 75 47 5 9 83 14 5 5 5 97 99 91 33 17 60 88 94 18 76 14 87 53 5 5 19 98
7 5 5 9 35 97 11 11 5 19 12 24 9 100 99 60 6 5 53 8 80 88 29 5 78 72 100 98 91 13 83 99 91 100 39 13 22 5 5 5 5 92 100
100 85 5 68 100 100 100 100 5 99 23 35 96 100 100 100 99 100 100 100 89 51 92 94 100 100 100 97 100 82 91 91 97 100 49 66 10 5 7 75 44 55 12
41 7 5 96 96 100 100 75 100 100 81 59 22 44 92 96 98 47 99 100 99 90 100 100 100 80 100 100 100 100 100 80 73 64 78 100 100 100 99 59 33 48 98
17 88 95 25 8 9 5 1 12 0 24 14 5 13 8 25 88 100 100 100 88 100 100 100 100 100 97 93 96 100 92 50 46 24 13 97 100 92 91 100 95 64 5
5 4 4 0 0 0 0 0 0 0 0 6 18 6 13 61 85 99 64 100 100 100 100 100 100 100 100 100 99 63 33 89 95 69 100 100 100 98 98 100 95 100 43
0 0 0 0 0 3 5 5 1 3 5 35 5 12 78 17 89 73 100 100 100 100 100 100 100 100 100 100 100 100 99 18 33 45 63 86 100 100 99 100 100 76 5
2 2 0 0 5 4 0 0 5 5 9 6 100 100 73 49 66 100 100 100 100 100 100 100 100 94 98 100 95 75 23 5 8 58 100 100 97 51 88 99 98 32 0
0 0 4 5 15 84 22 52 41 41 56 99 96 100 64 66 85 98 100 100 100 100 100 100 100 100 78 89 90 78 87 84 61 72 90 88 98 100 100 89 2 0 0
54 69 69 97 100 93 47 35 44 16 17 76 100 66 69 16 56 99 100 100 100 100 100 100 100 100 100 99 68 99 100 100 100 99 100 100 100 100 7 5 0 0 4
5 4 4 5 5 7 38 95 55 92 100 100 36 21 5 40 100 100 100 100 100 100 100 100 100 100 100 92 100 90 93 100 98 100 100 100 85 5 5 5 0 2 5
4 0 1 2 5 5 5 12 66 72 62 10 5 38 5 45 44 85 92 100 100 100 100 100 100 100 100 100 100 100 100 100 100 100 99 65 16 5 5 0 0 3 5
4 5 5 9 49 51 5 5 3 3 5 5 5 5 97 100 100 98 99 84 100 100 100 100 100 100 100 100 100 100 100 100 97 52 26 5 5 5 0 0 0 3 5
5 5 5 5 5 17 7 5 5 42 40 97 83 14 66 95 100 100 100 100 100 100 100 100 100 100 100 99 96 83 62 17 10 8 57 5 4 0 0 0 1 0 4
7 10 19 5 5 5 5 5 28 69 100 78 12 87 100 100 97 100 100 100 100 100 100 100 100 100 100 100 78 2 5 5 16 48 5 4 0 0 0 5 5 5 5
81 36 5 5 6 18 23 5 32 92 100 83 100 85 100 100 100 100 100 100 100 100 100 100 100 100 100 88 2 1 5 9 24 5 5 5 0 0 2 4 5 5 5
5 5 72 100 100 100 100 100 100 100 44 85 91 100 100 100 100 100 100 100 100 100 100 100 100 100 69 5 2 2 8 99 90 26 5 5 5 4 5 5 5 5 5
96 100 100 100 100 100 100 100 100 98 100 96 97 92 100 100 100 100 100 98 100 100 100 100 100 41 5 5 30 98 100 100 97 94 87 94 50 7 5 5 5 5 5
72 74 98 100 100 97 68 63 99 90 85 74 54 66 45 60 77 89 96 100 100 100 100 76 4 2 5 93 100 100 92 100 100 100 100 100 100 65 90 42 5 5 5
100 100 100 100 91 97 99 92 49 26 81 79 17 5 5 5 84 100 100 100 100 89 23 4 0 20 63 100 100 88 8 11 37 100 92 100 100 78 99 100 23 24 28
100 100 100 96 80 75 58 87 90 74 19 5 5 5 5 81 100 100 100 100 72 7 5 5 27 29 58 5 5 10 56 68 63 98 94 89 98 100 100 100 99 100 56

GFSMW_prec_cloud_024.txt.gz
Cloud_Cover
100 100 100 100 100 100 100 87 36 100 100 100 100 100 96 33 59 100 100 76 100 89 100 100 90 35 48 5 17 11 0 0 1 0 0 5 5 2 0 0 0 0 0
100 100 100 100 99 100 100 100 100 96 100 100 100 97 100 100 100 100 92 88 66 30 54 15 26 22 5 6 0 5 5 5 5 72 48 1 0 0 0 0 5 5 5
100 100 100 100 100 100 100 100 100 100 100 100 100 100 82 55 82 42 9 40 6 5 16 72 14 3 0 2 5 60 80 94 25 27 5 19 5 5 5 6 1 4 5
100 100 100 100 100 99 100 100 100 100 99 61 41 23 24 49 7 5 5 5 12 40 10 5 5 5 14 5 90 97 100 95 5 22 5 48 28 5 5 5 5 5 5
16 8 56 96 76 55 83 49 17 78 99 21 16 93 70 5 44 49 20 96 75 60 5 7 5 59 52 41 100 100 100 93 20 69 5 82 71 5 5 5 5 5 5
91 40 5 5 5 5 17 18 67 93 25 7 100 100 5 10 46 12 5 82 79 94 49 5 8 91 100 100 56 95 53 74 15 5 5 16 22 5 5 5 5 5 5
10 5 5 5 5 5 5 5 5 29 7 87 100 100 40 45 98 100 89 46 94 97 100 91 76 100 100 95 90 100 96 23 5 44 77 5 5 5 5 5 5 5 5
92 5 6 42 76 22 20 72 88 56 46 97 100 100 100 97 100 100 100 100 99 100 66 99 74 99 98 17 100 100 79 51 33 14 5 5 5 5 5 5 5 5 5
7 50 14 5 32 100 100 100 100 89 5 18 83 68 54 30 45 96 98 83 59 92 100 77 97 100 56 100 37 72 95 79 5 5 9 5 5 5 5 5 25 5 5
24 5 5 4 5 5 18 83 89 35 4 5 93 100 100 99 99 71 49 92 100 96 100 100 100 100 100 100 100 100 89 20 6 31 69 8 4 5 5 5 38 85 26
5 5 5 6 8 5 5 2 2 2 5 37 100 100 100 76 89 97 100 69 89 100 100 100 100 100 100 100 100 98 76 40 15 5 5 24 50 13 5 52 9 2 4
4 5 70 56 2 0 0 0 3 61 98 100 91 90 78 99 100 97 100 100 100 100 100 100 81 100 100 100 100 98 86 12 14 46 100 61 5 79 34 5 4 0 0
5 5 3 0 0 0 0 61 100 100 99 88 21 19 98 100 95 100 100 100 92 100 100 62 85 100 99 100 100 90 74 79 70 53 8 16 22 23 7 19 6 5 5
1 0 0 5 5 5 53 100 94 36 3 3 5 5 8 6 44 95 100 98 86 92 87 100 92 100 95 100 100 100 100 98 97 94 78 61 68 20 98 38 5 5 5
0 0 4 5 2 2 42 5 8 5 5 5 5 5 11 25 100 88 97 97 90 91 100 80 70 99 100 100 99 100 100 100 100 85 89 75 42 82 88 83 5 5 4
0 3 2 0 0 5 5 5 2 5 46 41 60 97 66 56 100 89 100 100 100 100 100 100 97 100 100 100 100 100 100 100 79 100 66 72 26 73 26 5 5 2 5
1 0 0 4 5 4 5 5 12 48 67 83 60 51 66 47 94 87 94 100 100 100 100 100 100 100 100 100 100 100 100 100 100 32 33 63 74 16 5 5 2 2 0
5 5 5 5 5 5 5 5 10 26 41 90 93 32 8 49 84 100 100 100 99 94 100 100 100 100 100 100 100 100 100 100 38 5 23 95 87 83 5 11 5 2 0
5 5 4 5 5 6 28 40 45 56 46 16 6 50 61 94 100 100 100 100 100 100 100 100 100 100 100 100 100 100 100 21 5 2 6 40 96 89 50 7 5 5 0
5 5 5 6 48 41 26 12 12 58 64 99 94 76 100 100 100 100 100 100 100 100 100 100 100 100 100 100 100 100 30 13 5 5 24 94 99 100 100 9 24 5 1
5 6 43 20 24 28 5 8 55 75 18 5 5 15 63 87 94 78 100 100 100 99 100 85 100 100 100 100 100 100 54 6 5 6 100 100 84 97 100 40 6 5 3
14 30 45 7 5 5 32 42 48 42 28 23 38 88 98 100 100 100 100 78 88 100 100 58 98 100 100 100 100 69 6 6 82 100 100 100 100 98 100 100 20 5 5
11 34 7 5 6 26 62 29 36 51 83 100 100 100 100 100 96 76 62 71 99 65 56 93 100 100 100 100 52 5 12 100 100 100 100 100 100 100 100 97 97 82 54
41 22 18 7 27 11 56 77 100 100 100 100 88 92 68 25 5 5 5 10 85 98 99 100 73 31 7 18 5 5 62 64 80 100 100 100 100 83 95 100 97 50 91
60 25 42 63 89 100 100 100 100 100 100 74 24 5 5 5 5 5 10 34 90 99 57 27 9 44 7 5 35 12 8 21 54 86 95 58 34 76 91 100 100 100 100
100 100 100 100 100 100 100 100 94 99 62 12 5 9 10 14 5 5 43 95 99 88 6 6 75 61 92 84 78 97 100 100 100 100 89 98 100 96 100 99 100 100 100

GFSMW_prec_cloud_027.txt.gz
Cloud_Cover
100 100 100 100 100 100 100 100 43 74 100 100 100 100 100 100 100 100 100 45 98 78 40 10 4 4 20 25 17 50 5 5 3 5 5 5 0 0 0 0 0 0 0
100 100 100 100 100 75 96 100 99 100 100 100 100 100 98 100 98 87 100 100 94 100 90 66 54 5 5 5 5 5 4 5 5 75 60 5 2 4 0 2 2 0 0
100 100 100 100 100 100 100 71 38 34 32 12 57 100 89 100 100 100 49 38 35 56 80 27 5 5 5 5 5 51 83 86 52 42 15 6 4 0 0 4 2 0 0
99 83 81 100 100 100 100 100 100 100 100 100 100 100 100 100 100 86 21 25 5 17 5 5 38 5 5 5 27 46 100 97 86 80 5 5 1 1 1 0 5 5 1
100 84 99 100 100 100 100 100 100 100 84 54 25 17 32 64 100 72 100 100 82 79 99 63 50 6 74 81 94 100 100 100 98 5 3 0 5 5 5 5 5 0 0
100 92 56 28 14 32 54 49 40 39 17 13 91 100 90 100 100 91 100 95 100 85 51 80 81 82 62 70 71 33 72 94 61 3 5 5 4 5 5 3 1 1 0
100 23 5 50 74 68 51 11 5 67 5 96 100 100 100 100 100 100 100 100 100 85 100 100 100 80 98 100 93 70 60 75 5 5 5 5 5 5 0 1 3 5 5
33 5 6 6 5 5 5 8 28 98 96 74 100 94 100 100 100 100 100 98 100 100 100 100 99 98 100 100 100 88 95 33 5 5 5 5 5 4 5 5 5 5 31
100 19 6 5 5 5 6 98 100 100 93 100 52 62 12 100 100 100 100 100 100 100 100 88 99 100 100 100 99 100 62 6 8 6 5 5 5 5 5 3 0 5 5
100 100 94 23 4 0 59 100 100 75 31 36 6 30 100 100 100 100 100 100 96 100 100 97 100 100 100 78 39 79 69 87 99 95 92 38 5 5 5 0 0 4 5
100 100 42 5 1 5 5 46 68 17 4 14 63 100 100 100 100 100 91 100 100 100 100 99 100 99 60 94 65 70 100 100 94 100 98 3 5 32 4 5 14 52 5
74 57 5 5 5 5 51 73 7 5 35 100 100 100 100 100 100 100 99 100 100 100 100 100 34 44 96 87 100 89 100 100 100 52 71 42 5 5 59 100 96 5 5
10 5 5 5 6 76 32 5 5 31 100 100 100 100 86 63 53 60 96 97 97 100 100 100 100 100 89 97 100 100 100 76 59 100 98 63 19 100 100 98 15 5 5
2 5 5 5 12 2 5 5 5 5 21 74 80 49 5 8 50 57 20 42 73 99 100 100 100 100 100 100 100 100 100 97 98 99 96 97 100 100 99 21 5 52 5
0 4 5 3 0 5 5 5 5 5 5 5 5 5 5 7 16 6 58 100 100 100 100 100 100 98 100 100 100 99 100 100 100 100 100 100 100 100 47 69 81 5 5
1 0 0 0 5 6 14 5 5 6 5 5 5 5 5 5 72 100 100 100 100 100 100 100 93 98 98 100 100 100 74 100 100 100 100 100 100 67 97 30 99 5 5
0 1 4 4 1 5 5 5 5 5 5 5 6 41 51 39 51 100 100 100 100 100 100 100 100 100 100 100 99 100 95 100 100 100 100 99 59 8 100 90 53 5 5
5 5 2 0 0 0 5 2 1 5 5 26 39 23 10 80 76 96 95 100 97 100 100 100 100 100 100 100 100 100 100 97 100 100 100 49 9 5 93 92 88 11 56
2 5 5 4 5 5 5 5 5 5 7 27 32 54 90 97 76 89 99 100 100 100 100 100 100 100 100 100 96 86 96 100 100 100 79 11 4 5 100 99 99 29 97
4 10 53 47 78 95 95 56 20 46 10 21 69 82 92 98 100 90 64 100 100 100 100 100 100 100 96 13 93 100 100 100 100 67 60 5 22 100 100 98 100 96 99
5 5 5 42 72 66 47 12 16 45 78 86 90 88 100 99 54 56 100 100 100 99 79 55 58 61 78 100 100 100 100 100 81 81 30 5 77 100 100 99 99 100 100
5 5 4 5 5 5 6 32 80 84 92 80 81 90 94 100 91 96 55 27 58 70 68 36 70 91 100 100 100 100 100 93 96 17 3 5 23 98 100 100 100 100 84
0 4 4 5 24 5 5 49 92 34 13 6 12 95 100 100 100 92 59 70 70 63 14 31 76 55 86 100 100 97 91 78 8 5 5 5 50 100 78 97 70 100 97
5 5 5 5 5 5 5 5 5 5 7 61 100 98 100 100 91 69 50 73 60 36 27 43 38 58 93 97 100 100 74 59 70 93 65 62 78 98 86 84 98 100 100
13 27 24 14 49 16 7 5 22 82 100 98 100 100 100 85 75 56 44 46 23 44 49 25 57 87 20 72 67 66 56 71 98 100 100 100 100 97 40 53 80 100 100
15 9 45 54 88 92 38 29 31 90 100 100 100 100 90 64 24 18 31 58 45 8 11 5 6 39 80 64 58 75 97 90 17 17 44 100 100 100 99 100 100 100 100

GFSMW_prec_cloud_030.txt.gz
Cloud_Cover
100 100 100 100 100 100 100 100 100 91 100 100 100 100 100 100 100 100 100 100 100 100 100 100 100 100 99 5 5 5 4 0 5 5 2 0 0 2 0 0 0 0 0
100 100 100 88 100 100 100 100 100 100 95 100 100 100 100 100 100 100 100 100 100 100 100 98 82 5 2 5 5 7 5 5 5 5 6 47 18 2 0 0 0 2 0
100 51 100 32 99 100 100 70 18 16 28 87 73 74 94 100 100 100 100 100 100 100 52 6 5 5 5 5 8 15 5 34 30 96 93 64 11 1 4 3 2 4 3
47 100 100 81 38 100 64 97 100 88 16 5 7 68 42 62 9 95 100 67 34 19 6 6 12 54 51 95 100 77 68 97 55 5 5 5 5 5 5 0 0 3 5
66 73 100 98 100 100 97 100 100 100 98 100 100 100 100 100 61 64 98 72 78 89 76 48 100 100 100 92 99 67 100 44 70 54 31 5 5 0 0 5 4 1 3
50 61 64 71 30 25 32 6 23 64 56 39 16 93 83 89 52 48 100 100 63 96 100 100 100 82 96 91 94 100 100 100 75 95 5 5 0 3 3 0 3 5 5
83 100 100 100 24 5 5 5 98 100 99 72 13 26 90 97 100 100 100 100 100 100 100 100 99 100 100 100 100 100 100 100 99 99 5 5 5 5 5 10 34 5 5
85 54 40 48 13 24 24 5 96 100 84 14 67 95 100 45 100 100 100 100 100 100 100 100 100 100 100 100 100 100 100 99 46 28 8 30 5 9 75 100 94 25 5
89 100 41 5 5 5 88 42 75 100 92 100 86 48 99 100 100 100 100 100 100 100 100 100 100 100 100 100 100 100 100 90 79 86 90 72 100 98 100 67 89 55 5
47 99 44 10 21 28 6 5 5 84 100 100 80 74 75 97 100 100 100 100 100 100 94 100 100 100 100 100 100 100 75 100 65 100 100 98 95 90 13 42 10 6 20
100 99 99 100 5 5 4 2 0 70 100 100 48 86 100 99 100 100 100 100 100 100 100 100 100 100 100 100 100 100 100 100 100 100 100 100 100 100 67 34 32 68 93
100 100 100 100 65 58 4 1 0 5 99 100 19 62 100 100 100 100 100 100 100 100 100 100 100 100 100 100 100 100 94 100 100 100 100 100 94 100 99 95 100 100 100
23 100 100 100 100 100 51 6 4 5 16 5 4 46 97 100 100 100 100 100 100 100 100 100 100 100 100 100 99 100 100 100 98 97 98 99 100 100 100 100 100 100 100
6 97 100 100 100 100 85 93 54 14 5 34 5 21 56 78 92 97 100 100 91 100 100 100 100 100 100 97 86 89 100 100 87 100 100 97 90 82 100 100 100 100 100
100 100 57 63 98 51 26 19 7 5 85 38 5 9 39 51 50 52 70 74 94 100 100 100 100 100 100 100 100 100 100 100 100 100 100 98 98 100 100 100 100 100 100
12 10 5 68 80 8 5 5 0 5 5 20 28 5 5 5 5 5 12 99 100 100 100 100 100 100 100 100 100 100 100 100 100 100 100 100 100 100 100 100 56 89 100
100 51 5 5 5 6 5 5 3 5 5 77 63 30 25 10 5 29 59 55 95 100 100 100 100 100 98 91 100 100 100 100 100 100 100 100 100 100 100 49 5 53 100
55 9 5 17 5 10 5 1 0 2 28 48 71 54 14 5 6 10 70 100 100 98 84 78 98 100 100 97 100 100 100 100 98 100 100 100 98 81 14 32 43 11 84
0 2 3 5 5 5 96 97 83 52 21 28 40 44 63 46 45 98 93 70 30 82 94 100 100 92 100 98 100 100 74 96 100 99 100 87 10 5 9 14 40 100 100
0 5 5 5 5 20 99 100 100 100 100 100 88 56 26 82 88 67 100 100 100 100 100 100 100 100 96 66 100 100 97 72 54 62 7 5 5 6 6 5 8 86 88
48 5 5 5 5 5 5 5 6 23 22 33 54 76 85 100 100 100 100 100 100 80 88 100 99 85 92 100 100 89 46 15 31 5 5 5 5 5 5 4 16 7 54
51 18 14 6 24 21 21 30 37 57 78 96 100 100 81 73 79 61 33 16 79 100 80 69 72 78 100 98 92 95 78 82 92 93 78 73 57 25 5 16 100 86 93
45 65 66 67 72 46 52 90 100 100 93 73 67 56 61 58 11 33 58 18 60 62 55 32 88 35 9 5 7 63 42 12 14 13 75 100 96 94 85 9 43 100 100
81 86 85 78 89 80 40 11 31 60 43 14 16 9 5 11 5 5 7 16 70 57 15 8 5 5 5 6 91 59 8 6 8 6 5 5 5 54 100 100 95 55 73
5 22 38 49 66 74 70 34 5 22 5 5 5 5 5 7 30 40 27 34 10 5 16 12 5 8 23 78 92 99 86 89 56 66 7 30 31 23 7 80 79 100 100
11 31 33 48 52 49 30 8 5 5 5 5 6 18 28 63 59 11 7 54 5 5 5 5 37 32 90 92 93 100 100 92 76 21 38 76 95 100 98 13 50 100 100

GFSMW_prec_cloud_033.txt.gz
Cloud_Cover
100 100 100 100 100 100 100 100 100 100 77 100 100 100 100 100 100 100 100 100 100 100 100 100 100 100 100 100 100 36 42 100 55 5 5 4 5 5 0 0 0 0 0
100 100 100 100 100 100 98 96 100 100 100 100 100 100 100 100 100 100 100 100 100 100 100 100 100 82 100 100 100 88 6 6 22 36 33 8 11 6 3 4 0 0 0
88 100 100 100 100 100 100 98 100 100 100 100 100 100 92 100 100 100 100 100 100 100 100 97 100 100 100 74 86 56 100 100 62 41 5 5 37 29 5 2 0 0 1
73 91 92 66 100 100 100 100 100 100 42 8 12 13 15 77 100 100 100 100 100 96 100 100 98 7 38 100 100 100 100 69 33 41 75 96 98 100 66 4 2 0 0
100 97 10 100 93 100 94 65 100 100 99 98 99 100 77 86 20 18 56 69 94 100 100 78 58 86 100 100 100 100 100 100 98 99 100 89 90 100 71 9 5 5 4
100 64 98 30 100 100 100 92 29 5 5 5 3 16 5 25 34 65 63 100 100 100 100 100 100 99 100 98 97 100 99 99 100 100 100 100 68 48 49 20 5 5 50
100 97 8 12 78 82 5 5 5 5 15 5 6 5 5 7 63 90 78 88 92 97 100 100 100 100 100 100 100 100 100 100 100 100 100 81 74 98 65 75 60 58 97
5 85 100 96 77 24 5 5 5 8 25 85 16 15 12 100 99 86 100 100 100 100 100 100 100 100 100 100 100 100 100 100 100 100 61 100 98 84 70 74 42 38 82
6 100 100 100 14 5 5 5 40 94 46 40 97 100 81 74 100 100 100 100 100 100 100 100 76 100 100 100 100 100 100 100 100 100 100 100 100 94 60 36 18 100 100
4 70 72 38 89 14 5 62 76 68 5 7 66 100 99 74 73 95 100 100 100 100 100 90 100 100 100 100 100 100 100 100 100 86 100 100 99 94 70 94 100 89 60
5 5 5 36 62 62 100 61 35 92 32 41 80 98 97 100 100 100 100 99 100 100 100 100 100 100 100 100 100 100 100 100 100 83 100 100 100 72 100 100 100 95 100
5 5 5 5 54 100 100 99 76 12 29 52 46 100 100 100 100 100 100 100 100 100 100 100 100 100 100 100 100 100 100 100 100 100 100 99 80 99 99 97 100 100 99
7 5 5 5 11 91 100 95 94 62 14 26 71 100 100 100 100 100 100 100 100 100 100 100 100 100 100 100 100 100 100 100 100 100 100 83 100 97 99 100 95 98 99
5 5 5 3 5 95 100 100 100 100 34 56 39 76 100 100 100 100 100 100 100 100 100 100 100 100 100 100 100 100 80 100 100 100 100 100 100 100 100 100 100 100 100
1 1 2 85 49 100 100 100 55 27 12 26 47 94 100 100 100 100 100 100 100 99 79 100 100 100 100 100 100 100 100 100 100 100 100 100 100 100 100 100 100 100 99
5 5 4 5 76 74 41 37 61 52 62 5 6 5 13 14 50 51 41 48 59 81 100 93 100 89 100 100 100 100 97 93 100 100 100 100 100 100 100 100 100 99 66
66 12 6 5 5 3 8 34 31 91 87 9 5 5 5 57 84 87 87 81 82 50 100 100 100 98 100 100 88 99 100 100 100 100 100 99 100 100 100 100 11 39 93
5 13 61 47 7 83 100 100 34 5 5 5 5 5 5 5 5 5 5 10 68 98 98 100 100 98 95 98 74 100 100 100 100 81 91 51 5 14 57 34 54 56 7
0 3 3 6 5 6 28 5 5 5 5 5 23 99 98 100 100 100 100 99 96 92 100 100 80 46 71 91 99 100 100 77 42 6 5 5 5 36 55 21 7 6 12
5 5 5 5 6 8 10 5 5 5 32 70 68 34 19 49 84 80 100 100 98 86 98 80 93 97 37 13 35 38 28 6 6 13 5 5 7 5 8 46 37 5 5
5 5 6 38 82 74 68 26 5 8 5 5 5 19 44 95 99 83 91 98 96 90 65 52 31 18 30 28 32 28 42 95 99 100 83 34 48 65 68 73 100 71 5
0 1 9 42 48 22 5 31 24 17 42 23 48 83 96 100 94 72 67 90 98 82 56 80 18 14 34 92 78 39 24 23 8 5 5 5 5 5 5 5 48 99 80
0 0 5 4 5 27 43 53 48 57 80 100 100 99 93 99 100 100 100 100 70 38 15 5 5 5 5 5 51 69 16 5 5 5 5 2 5 5 18 2 0 25 100
0 0 5 5 12 29 45 98 100 99 98 98 91 77 65 73 85 100 99 90 46 7 5 6 5 5 44 63 42 5 5 5 5 5 5 5 5 19 48 12 14 14 29
3 36 5 5 5 10 5 39 82 62 39 51 46 55 99 96 71 35 17 5 5 11 44 23 5 31 16 51 55 22 7 17 24 37 5 20 90 17 11 5 37 82 89
80 100 22 5 5 11 8 11 8 5 6 39 90 63 7 17 28 6 5 17 57 60 34 5 5 5 35 5 43 74 74 59 70 59 72 65 76 89 98 99 94 63 90

GFSMW_prec_cloud_036.txt.gz
Cloud_Cover
32 100 100 72 5 100 100 100 100 100 100 100 100 100 100 100 100 100 100 100 100 100 100 100 100 100 100 97 100 100 100 100 97 99 88 81 61 66 10 26 16 5 5
99 100 100 99 100 100 99 95 100 100 100 100 100 97 95 96 100 100 100 100 100 100 100 100 100 100 100 100 94 74 90 86 69 59 76 5 6 39 5 80 100 18 0
100 100 100 94 100 100 100 99 92 100 100 100 100 100 92 92 70 90 100 100 100 100 100 100 100 100 55 96 73 79 61 85 100 100 100 80 55 36 33 23 5 4 5
100 100 100 100 91 13 8 78 100 100 93 12 76 91 13 5 89 21 40 59 100 100 100 90 84 98 82 99 99 97 76 92 65 100 100 99 100 100 98 5 5 5 4
91 100 95 100 100 100 100 100 100 76 100 100 85 100 71 81 8 70 70 5 9 6 78 96 99 100 100 100 100 100 100 100 100 96 54 100 100 100 100 100 86 8 8
86 100 100 75 27 56 66 54 100 100 39 15 71 96 79 83 41 63 79 44 72 69 100 81 92 99 100 100 100 100 100 100 100 100 100 100 100 100 83 57 62 100 73
5 97 100 100 99 46 13 100 94 100 100 99 9 7 62 47 93 78 21 5 95 100 100 100 100 100 100 100 100 100 100 100 100 100 100 100 100 100 100 100 100 42 84
64 7 100 100 100 44 31 5 17 76 91 39 5 5 94 29 80 100 88 68 100 100 11 94 100 100 100 100 94 100 100 100 100 100 100 100 100 100 100 100 78 25 79
5 5 97 5 36 6 50 7 5 14 24 5 65 5 36 60 100 100 100 100 89 100 100 100 100 100 100 100 96 95 100 100 100 100 100 100 100 100 100 100 100 100 70
4 4 82 23 86 73 100 100 3 7 5 5 5 5 66 100 100 100 98 100 100 100 100 100 100 100 100 100 100 100 100 100 100 100 100 100 100 88 68 71 98 97 48
5 5 5 5 29 77 100 100 85 100 3 5 86 100 88 100 100 100 99 100 100 100 100 100 100 100 100 100 100 100 100 100 100 100 100 100 100 97 76 99 86 90 97
4 0 5 5 5 5 6 56 47 6 11 79 100 100 96 98 100 100 100 100 100 100 100 100 100 100 100 100 100 100 100 100 100 100 100 100 81 76 99 100 100 83 66
14 6 0 0 4 5 4 5 5 39 43 69 55 100 89 41 100 71 100 100 100 100 100 100 100 100 100 100 100 100 100 100 100 100 100 100 100 78 89 56 77 100 100
100 5 1 0 0 5 5 3 1 8 29 87 81 8 81 88 39 100 100 100 100 100 100 100 100 100 100 100 100 100 100 100 100 99 100 99 99 91 80 49 98 100 100
91 95 6 3 0 0 10 5 20 94 61 19 4 11 7 14 100 100 100 100 100 100 100 100 100 100 100 100 100 92 100 100 100 99 83 92 100 80 80 84 82 100 100
0 84 6 0 1 1 5 28 12 5 5 4 2 29 99 100 100 100 100 100 100 100 28 9 10 78 66 100 65 100 100 86 68 52 44 100 100 56 20 13 6 34 58
0 3 5 5 5 5 5 5 5 5 5 1 3 4 3 4 5 12 24 65 61 9 5 28 91 81 89 86 72 62 88 31 11 63 100 100 35 5 5 7 71 63 62
0 0 2 5 5 2 1 4 6 5 6 66 59 86 53 5 5 5 5 5 9 38 40 13 11 5 5 8 46 54 93 82 95 100 41 13 34 38 45 44 6 5 5
0 0 0 0 0 0 0 0 5 5 8 35 5 5 5 5 5 5 5 5 5 10 40 48 72 100 100 100 100 91 100 100 100 58 12 9 8 56 39 5 47 39 6
0 0 0 0 0 0 0 2 5 6 55 51 26 6 25 13 9 20 16 43 57 97 100 99 98 94 97 89 79 26 6 5 6 5 5 63 99 46 63 6 11 47 11
0 0 0 0 0 0 0 0 3 4 24 22 28 58 54 52 56 100 88 79 88 100 97 99 56 12 44 32 5 5 5 5 5 11 65 99 74 28 5 5 5 5 5
0 0 4 0 0 0 0 1 1 0 0 5 5 21 65 99 100 100 96 100 100 100 79 22 6 51 92 97 31 52 97 45 71 43 82 97 38 5 5 5 8 11 50
5 5 5 5 5 2 5 5 5 5 5 10 63 91 100 100 100 100 98 100 91 56 58 11 5 5 5 45 96 100 19 33 66 41 25 5 3 5 14 100 14 59 89
10 5 5 10 20 17 5 14 7 6 5 22 24 77 55 79 98 99 92 77 82 66 76 13 79 70 7 13 5 5 5 10 15 5 5 5 6 68 100 21 5 5 5
100 36 35 12 57 26 77 100 100 64 8 17 89 82 61 83 89 93 95 74 63 74 69 76 34 77 74 33 40 10 5 5 5 5 5 6 46 100 50 5 5 5 5
100 100 100 44 48 52 100 56 99 96 65 98 100 100 65 66 72 75 30 42 56 89 78 74 88 92 100 88 66 56 18 18 72 66 76 99 100 100 11 5 5 8 48

GFSMW_prec_cloud_039.txt.gz
Cloud_Cover
96 100 100 100 38 74 100 77 99 100 100 100 100 100 87 56 77 100 100 100 100 100 100 97 35 97 100 100 100 100 100 100 100 100 100 100 100 33 5 6 68 40 100
100 94 94 100 100 96 44 94 80 67 90 42 58 92 70 71 73 99 100 100 100 100 100 100 100 100 100 100 100 100 100 100 100 100 96 21 41 73 63 5 30 100 100
18 92 26 70 88 46 88 100 95 39 100 98 87 75 87 56 18 10 81 100 100 100 100 100 100 100 100 100 100 76 96 90 98 55 62 44 74 59 95 90 100 100 100
7 100 100 100 100 99 49 11 50 64 100 100 100 100 100 100 100 84 23 60 93 94 94 76 100 100 90 100 100 100 100 100 95 100 100 99 100 100 99 100 100 46 42
0 100 100 100 100 100 100 100 100 100 100 100 100 100 100 9 44 100 100 100 100 95 100 100 100 74 74 42 61 99 100 100 100 100 100 100 100 100 100 82 100 60 34
79 100 100 100 100 100 100 78 27 24 59 43 84 80 74 41 100 97 90 89 80 57 97 100 100 100 12 24 60 96 100 100 99 100 100 100 100 100 100 93 73 100 96
100 100 64 100 100 99 96 95 76 72 79 100 95 100 100 45 13 83 77 50 22 100 100 98 100 100 100 92 87 80 100 100 100 100 100 100 100 100 100 100 100 100 57
5 77 9 22 100 34 90 72 6 5 5 5 6 32 31 64 87 68 33 72 99 100 100 98 99 100 100 100 100 100 100 100 100 100 100 100 100 100 100 100 94 100 66
75 4 5 5 5 74 98 31 6 42 99 100 100 16 44 100 100 17 84 100 100 100 100 100 100 100 100 68 100 100 100 100 100 100 100 100 100 100 100 100 97 52 21
3 0 0 4 4 17 5 5 85 100 100 100 100 99 100 95 100 95 100 100 76 79 100 100 100 100 100 100 100 100 100 100 100 100 100 100 100 100 100 100 100 84 28
1 0 5 2 0 78 58 9 73 100 100 100 100 99 97 100 100 100 100 100 100 100 100 100 100 100 100 100 100 100 100 100 100 100 100 100 100 100 100 87 100 100 98
87 98 19 0 0 0 85 5 5 100 100 100 100 100 100 100 100 100 100 100 100 100 100 100 100 100 100 100 100 100 100 100 100 100 100 100 100 100 100 96 100 100 100
0 46 62 5 5 4 0 2 7 15 100 100 100 100 100 100 100 100 100 100 100 100 100 100 100 100 100 100 100 100 100 100 99 100 100 100 100 100 89 100 100 93 100
4 25 5 18 39 4 0 0 0 14 82 100 100 100 80 100 100 100 100 100 100 100 100 100 100 100 100 100 100 100 100 100 100 100 100 100 97 96 100 100 56 56 47
100 88 9 21 100 59 4 0 0 0 5 1 28 58 45 49 57 88 100 100 100 100 100 100 100 100 100 100 100 100 100 100 100 100 100 100 100 73 100 100 83 91 100
74 71 0 3 0 58 8 0 0 0 0 0 0 0 0 20 33 62 100 99 100 100 100 100 100 100 100 100 100 100 100 100 100 100 76 84 99 100 28 5 20 17 57
5 4 0 0 0 0 0 2 4 0 0 0 0 0 0 0 0 6 21 69 96 100 64 27 19 46 76 70 100 100 96 66 66 36 10 91 100 48 99 91 32 5 6
0 2 0 0 0 0 1 0 0 0 0 0 0 0 0 4 2 2 6 39 33 4 5 5 6 24 46 17 13 6 17 20 64 100 100 100 79 66 67 16 22 34 76
5 4 0 0 0 0 0 0 0 0 0 0 1 3 4 5 7 66 42 38 56 60 59 42 24 18 17 19 32 61 30 65 99 100 100 73 17 49 5 5 5 18 31
5 5 0 0 0 0 0 0 0 0 0 1 5 5 24 2 0 0 0 5 26 45 7 22 95 100 100 100 81 100 84 83 96 98 49 13 6 5 5 5 5 5 5
15 5 5 0 0 0 0 0 0 0 0 2 0 5 4 2 0 0 1 5 5 5 22 61 84 57 36 66 39 10 76 98 58 8 50 38 55 52 98 67 31 5 5
5 5 5 5 3 11 13 36 14 4 4 5 5 5 5 5 5 2 1 5 5 6 6 39 23 5 50 68 73 59 16 29 63 50 100 77 97 100 66 11 29 24 74
9 5 5 23 98 100 100 100 16 5 7 35 12 8 5 26 11 41 30 62 18 86 52 82 93 99 100 99 78 61 71 57 69 100 70 61 100 40 23 5 80 100 85
61 6 82 100 100 96 100 51 35 100 100 95 46 41 5 38 61 62 57 33 99 44 20 63 94 100 94 85 96 100 99 100 100 100 78 7 24 100 45 98 100 100 100
100 100 96 42 5 9 98 100 100 100 100 100 100 99 83 64 100 99 85 99 80 94 100 100 98 86 78 44 45 77 95 100 95 100 100 100 100 99 100 100 100 100 100
100 100 97 6 5 19 100 100 100 100 100 100 100 100 100 100 100 100 100 99 100 100 100 100 100 100 100 95 63 99 100 100 100 100 100 100 100 100 100 100 100 100 100

GFSMW_prec_cloud_042.txt.gz
Cloud_Cover
5 69 49 100 100 100 100 100 100 100 100 100 100 100 100 94 100 100 100 100 100 80 49 100 81 100 100 100 100 100 100 100 100 100 100 100 100 100 100 100 100 100 100
20 100 72 100 100 100 100 100 100 100 100 100 100 100 100 100 100 100 100 100 100 100 98 91 100 100 100 100 100 100 100 100 100 100 100 100 100 95 77 57 68 97 100
100 18 100 98 100 100 100 100 100 100 100 100 100 100 100 100 84 92 100 100 26 97 84 100 98 100 100 100 100 100 100 100 100 100 100 100 100 86 91 70 78 100 100
5 5 30 52 92 100 100 100 100 100 100 100 100 100 100 100 99 91 100 94 100 100 80 83 58 89 51 28 86 100 77 87 100 98 100 100 100 100 96 28 90 100 100
1 3 3 69 100 100 100 100 100 100 100 98 5 13 93 9 99 10 10 100 99 100 100 100 100 100 100 100 90 100 96 60 11 83 96 100 100 93 100 100 100 100 100
5 1 5 16 100 100 100 100 46 15 6 16 78 10 5 5 19 87 100 100 100 78 81 100 100 98 100 99 90 81 52 34 51 88 89 100 100 100 80 100 100 100 100
5 95 38 5 9 100 94 26 68 15 5 15 5 11 88 89 97 100 100 100 100 100 100 100 100 100 100 100 97 100 68 99 100 63 96 100 100 100 100 100 100 100 100
2 44 17 6 9 67 40 33 100 100 11 2 6 9 10 62 54 83 80 61 100 100 100 100 100 100 100 100 100 100 96 100 100 100 100 100 100 100 100 100 100 100 100
99 98 47 25 16 4 5 5 4 5 99 78 94 86 100 100 81 98 100 100 100 100 90 100 100 100 100 100 100 100 100 100 100 100 100 100 100 100 100 100 100 100 100
0 1 2 76 15 5 3 2 5 90 76 66 88 97 99 100 100 100 100 100 100 95 100 100 100 100 100 100 100 100 100 100 100 100 100 100 100 100 100 100 100 100 100
5 0 7 45 0 53 72 47 39 43 43 100 100 100 100 100 100 100 100 100 100 100 100 100 100 100 100 100 100 100 100 100 100 100 100 100 100 100 100 100 100 100 100
94 13 3 1 0 1 59 5 100 100 80 38 100 100 100 100 100 100 100 100 100 100 100 100 100 100 100 100 100 100 100 100 100 100 100 100 100 100 100 100 100 100 100
98 6 47 0 0 1 5 0 20 98 29 36 94 100 100 100 100 100 100 100 100 100 100 100 100 100 100 100 100 100 100 100 100 100 100 100 100 100 100 100 98 100 100
70 14 95 35 2 0 0 0 0 3 4 58 100 100 100 100 100 100 100 100 100 100 100 100 100 100 100 100 100 100 100 100 100 100 100 100 100 100 100 100 100 100 100
26 36 100 9 44 14 4 0 0 4 1 7 96 100 100 100 100 100 100 100 100 100 100 100 100 100 100 100 100 100 100 100 100 100 100 100 100 100 100 74 56 83 100
65 90 21 92 75 94 40 0 0 16 2 5 16 100 100 100 100 100 100 100 100 100 100 100 100 100 100 100 100 100 100 100 100 100 100 100 99 100 100 100 87 60 10
35 98 9 0 0 0 0 0 0 20 79 97 100 100 100 100 100 100 100 100 100 100 100 100 100 100 100 100 100 100 100 100 100 100 100 100 100 100 87 62 16 5 5
100 100 92 4 4 5 2 0 0 0 28 100 100 100 100 100 100 98 86 52 12 48 100 99 99 100 100 100 97 78 100 98 73 91 100 100 100 100 94 87 84 100 100
100 100 92 15 5 4 0 0 0 0 0 5 40 54 70 97 90 15 5 18 92 65 10 0 0 0 34 11 10 8 10 30 36 85 100 100 100 42 48 46 75 77 99
100 100 100 17 0 4 5 2 0 0 0 0 0 16 1 0 1 5 5 41 0 0 0 0 1 6 64 11 25 97 100 100 96 99 98 67 50 40 60 82 82 35 93
99 100 100 60 5 3 5 5 5 5 1 2 0 0 0 3 4 2 3 5 5 5 29 62 57 65 79 100 100 100 100 87 70 10 18 40 72 53 49 26 13 85 100
84 100 100 26 5 6 5 5 8 5 4 5 1 0 0 4 5 5 4 5 5 30 99 61 100 100 99 100 100 80 30 54 86 100 95 87 86 100 91 98 95 100 100
100 100 100 92 100 100 100 3 5 5 5 4 5 5 4 5 5 5 5 5 8 6 92 55 44 68 64 69 60 93 98 100 100 97 100 100 100 100 98 100 100 100 100
100 100 100 100 100 100 100 94 12 14 8 8 5 5 5 22 33 67 62 5 5 5 43 36 69 48 6 61 95 89 100 94 100 100 100 100 99 100 100 100 100 100 100
100 100 100 100 100 100 100 100 100 100 100 58 8 5 12 7 86 100 100 69 50 36 63 45 82 100 100 100 100 100 100 100 100 100 92 87 70 93 100 100 100 100 100
100 100 100 100 100 100 100 100 100 100 82 96 76 86 92 100 100 99 100 100 100 100 97 100 100 100 100 100 100 100 100 99 100 100 100 100 100 100 100 100 100 100 100

GFSMW_prec_cloud_045.txt.gz
Cloud_Cover
2 30 99 100 100 100 100 100 100 100 100 100 100 100 100 100 100 100 100 100 97 74 100 100 100 96 97 100 100 96 51 100 100 100 100 100 100 100 100 100 100 100 96
35 55 80 100 91 98 100 100 100 100 100 100 100 100 100 100 100 100 100 100 99 93 100 100 81 81 74 100 100 100 100 100 100 100 100 100 100 100 100 100 100 98 82
7 70 100 100 49 64 67 100 100 100 100 100 100 100 100 100 100 100 100 100 100 100 100 100 98 100 100 100 100 100 98 100 98 100 74 100 42 27 68 24 52 97 100
0 0 45 100 47 40 36 100 100 100 100 100 100 100 100 100 100 100 100 100 100 100 100 100 100 100 40 46 99 92 66 99 100 100 99 52 100 8 94 96 84 92 99
0 3 0 2 1 53 73 92 100 100 100 100 100 100 100 100 100 86 100 100 95 91 100 100 100 92 11 67 77 62 96 99 91 87 63 100 82 79 100 100 86 95 92
1 6 53 4 0 1 58 94 82 100 100 100 100 100 100 100 100 100 93 100 100 98 33 84 52 7 33 100 95 97 100 100 100 77 100 73 39 100 92 83 58 100 100
0 0 60 5 0 0 62 94 100 100 100 100 100 100 100 100 100 100 100 100 100 59 58 60 94 100 85 71 94 100 100 100 93 43 60 100 99 94 100 100 100 82 100
0 3 0 0 0 0 0 23 100 100 100 100 84 94 100 100 100 100 100 100 99 100 90 100 95 100 100 100 100 100 100 100 100 94 96 97 100 100 100 100 100 100 100
0 4 0 3 5 0 0 0 37 100 99 100 100 100 57 62 97 99 87 100 96 100 100 100 46 100 100 100 100 100 100 100 100 100 100 100 100 100 100 100 100 100 100
0 0 0 4 4 0 0 77 2 5 7 6 13 50 97 75 100 100 100 100 100 100 90 100 100 100 100 100 100 100 100 100 100 100 100 100 100 100 100 100 100 100 100
1 0 2 2 4 5 4 4 91 69 96 100 100 99 100 100 100 94 100 100 100 100 100 100 100 100 100 100 100 100 100 100 100 100 100 100 100 100 100 100 100 100 100
0 5 5 0 1 38 44 7 6 9 43 100 100 100 100 100 100 100 100 100 100 100 100 100 100 100 100 100 100 100 100 100 100 100 100 100 100 100 100 100 100 100 100
4 0 20 5 0 40 6 0 2 5 4 51 67 100 100 100 100 100 100 100 100 100 100 100 100 100 100 100 100 100 100 100 100 100 100 100 100 100 100 100 100 100 100
4 2 5 5 5 1 0 0 3 4 2 0 1 53 95 100 100 100 100 100 100 100 100 100 100 100 100 100 100 100 100 100 100 100 100 100 100 100 100 100 100 100 89
18 5 5 13 4 5 3 3 5 27 1 4 0 0 4 45 100 100 100 97 100 100 100 100 100 100 100 100 100 100 100 100 100 100 100 100 100 100 100 100 100 100 98
100 78 25 27 100 76 8 100 55 1 0 0 0 0 0 30 100 100 100 100 100 100 100 100 100 100 100 100 100 100 100 100 100 100 100 100 100 100 100 100 100 96 10
83 100 59 49 99 50 9 11 4 5 1 0 1 1 33 68 100 100 100 100 100 100 100 100 100 100 100 100 100 100 97 100 100 100 100 100 100 100 100 100 100 26 10
60 73 99 29 46 86 46 28 42 32 16 40 90 96 100 100 100 100 100 100 100 100 100 100 100 100 100 100 100 100 100 100 100 100 100 100 99 100 100 98 78 97 70
89 100 8 45 77 100 100 100 42 93 100 100 100 100 100 100 100 100 100 100 100 100 100 100 100 100 100 100 100 100 100 100 100 100 100 100 100 100 98 75 88 100 100
100 99 86 82 100 100 100 100 50 73 100 100 100 100 100 100 100 100 100 100 99 65 99 100 100 100 100 100 100 100 100 98 86 99 100 100 100 100 97 75 96 100 100
100 100 99 99 100 100 100 100 100 100 46 89 89 94 99 100 100 77 70 33 67 85 100 100 100 100 98 100 82 55 73 88 100 100 100 100 97 100 100 100 100 95 75
97 100 100 100 100 99 100 100 100 100 100 98 52 95 100 100 65 55 81 76 78 100 100 100 100 100 100 100 99 100 100 100 100 100 92 99 100 100 100 99 93 83 95
100 100 100 100 100 100 100 100 100 100 100 100 100 77 23 5 5 5 40 66 99 100 100 100 100 100 100 100 100 100 100 100 99 95 100 100 100 100 98 87 100 90 74
100 100 100 100 98 100 100 100 100 100 100 100 100 97 94 9 12 14 24 46 100 100 100 92 100 100 100 100 99 96 100 100 100 100 100 100 100 100 100 100 100 99 100
100 100 100 100 100 100 100 100 100 100 100 100 100 100 96 100 100 100 100 100 100 100 72 90 86 99 100 100 100 100 100 100 100 100 100 100 100 100 100 100 100 80 87
100 84 95 100 100 100 100 100 100 100 100 100 100 100 100 100 100 100 100 100 92 90 100 100 100 100 100 100 100 100 100 100 100 100 100 100 100 100 100 98 100 100 100

GFSMW_prec_cloud_048.txt.gz
Cloud_Cover
34 100 100 46 100 100 100 100 100 100 100 100 100 100 100 100 100 100 100 99 100 100 100 100 100 68 56 88 72 99 100 100 97 100 100 100 100 100 100 100 100 100 100
100 96 100 100 100 100 100 100 100 100 100 100 100 100 100 100 100 100 100 100 100 100 100 96 100 100 100 92 64 100 88 100 100 100 100 100 99 98 98 50 57 6 5
91 100 100 100 100 100 100 100 100 100 100 100 100 100 100 100 100 100 100 100 100 100 100 100 100 100 100 93 100 79 100 90 100 100 77 55 88 54 100 100 35 65 27
0 84 100 100 100 100 83 100 100 100 100 100 100 100 100 100 100 100 100 100 100 100 100 100 100 100 90 100 71 98 96 100 70 39 46 90 50 66 18 5 5 33 100
0 8 64 87 100 100 100 84 100 100 100 100 100 100 100 100 100 100 100 100 100 100 100 100 100 84 98 100 98 99 100 90 85 17 68 100 100 100 100 96 100 96 13
0 0 0 16 90 80 88 51 35 34 100 100 100 100 100 100 100 100 100 100 100 100 100 100 100 100 86 100 79 100 71 94 24 65 100 100 100 100 100 100 100 88 100
3 0 0 16 60 62 66 66 40 20 31 100 100 100 100 100 100 100 100 100 100 100 100 100 100 100 100 100 100 100 96 98 82 100 100 100 100 100 100 86 74 100 88
5 0 0 2 44 8 21 18 31 18 97 28 73 100 100 100 100 100 100 100 100 100 100 100 100 100 54 93 91 88 100 100 100 100 100 100 100 100 100 99 93 99 100
5 3 5 14 32 3 0 0 0 0 3 94 100 100 100 75 100 100 100 100 100 97 88 100 100 100 99 49 40 67 100 100 100 100 100 100 99 100 100 100 100 100 100
5 5 2 1 0 4 0 0 0 0 0 4 44 100 100 100 100 100 100 100 100 100 100 100 100 95 93 88 99 99 100 100 100 100 100 100 100 100 100 100 100 100 100
5 5 5 5 0 0 0 0 0 0 29 61 6 33 64 100 100 90 87 100 100 100 100 95 100 100 100 100 100 100 100 100 100 100 100 100 100 100 100 100 100 100 100
36 5 47 8 5 5 82 81 5 2 2 5 6 90 100 100 100 100 99 100 74 87 86 100 100 100 100 100 100 100 100 100 100 100 100 100 100 100 100 100 100 100 100
100 100 74 5 5 1 6 8 2 0 0 0 84 100 100 100 56 63 82 65 97 50 100 100 100 100 100 100 100 98 100 100 100 100 100 100 100 100 100 100 100 100 100
100 100 100 47 5 5 4 0 2 2 0 0 1 51 94 100 100 100 91 100 100 100 98 100 100 100 100 100 100 100 100 100 100 100 100 100 100 100 100 100 100 100 100
99 100 100 100 46 42 9 0 3 0 0 0 0 0 0 2 7 88 100 100 100 98 99 100 100 100 100 100 98 100 100 100 100 100 100 100 100 100 100 100 100 100 100
100 100 100 100 100 100 24 46 97 5 3 0 0 0 0 0 0 0 2 100 100 100 100 100 100 100 100 100 100 100 100 100 100 100 100 100 100 100 98 100 100 100 100
100 100 100 100 96 96 100 100 71 100 98 1 0 0 0 0 0 45 100 100 100 100 100 100 100 100 100 100 100 100 100 100 100 100 93 100 100 100 100 100 100 100 99
100 100 100 100 100 80 100 100 100 100 98 4 2 0 1 28 84 100 100 100 100 100 100 100 100 100 100 100 100 100 100 100 100 100 100 100 100 100 100 100 100 100 100
100 100 100 100 100 100 100 100 100 100 100 100 94 39 88 100 100 100 100 100 100 100 100 100 100 100 100 100 100 100 100 100 100 100 100 100 100 100 100 100 99 86 40
100 99 93 99 100 100 100 100 100 100 100 100 100 100 100 100 100 100 100 100 100 100 100 100 100 100 100 100 100 100 100 100 100 100 100 100 100 100 100 100 84 70 93
100 100 100 100 100 100 100 100 100 100 100 100 100 100 100 100 100 100 100 100 100 100 100 100 100 100 100 100 100 100 100 100 100 100 100 100 100 100 73 94 95 100 100
50 100 100 93 75 100 100 100 100 100 100 100 100 100 100 100 100 100 100 100 100 100 100 100 100 100 100 100 100 100 100 100 100 100 100 100 100 84 81 100 100 100 100
96 98 99 100 100 80 100 100 99 100 100 100 100 100 100 100 100 100 100 100 100 100 100 100 100 100 100 100 100 100 100 100 100 100 100 100 100 100 100 100 100 100 100
100 100 100 100 85 92 100 100 100 100 99 100 100 100 100 100 100 100 100 100 100 100 100 100 100 100 100 100 100 100 100 100 100 100 100 100 100 100 100 100 100 100 100
98 100 100 100 100 100 100 100 100 100 100 100 100 100 100 100 100 100 100 100 100 100 100 100 100 100 100 100 100 100 100 100 100 100 100 100 100 100 100 100 100 100 100
100 100 100 100 100 100 100 100 100 100 100 100 100 100 100 100 100 100 100 100 100 100 100 100 100 100 100 100 100 100 100 100 100 100 100 100 100 100 100 100 100 100 100

GFSMW_prec_cloud_054.txt.gz
Cloud_Cover
0 0 1 76 74 89 100 100 100 100 100 100 100 100 100 100 100 100 100 100 100 100 100 100 100 100 98 100 91 100 70 29 42 93 95 69 73 100 90 100 100 100 100
0 0 0 18 100 88 100 100 100 100 100 100 100 100 100 100 100 100 100 100 100 100 100 100 100 90 89 100 92 92 41 72 97 47 100 58 92 50 99 59 100 100 100
0 0 0 0 22 91 99 100 100 100 100 100 100 100 100 100 100 100 100 100 100 100 100 97 98 96 61 88 100 92 100 80 96 100 76 74 65 78 100 97 99 100 94
0 0 0 0 0 3 100 96 100 100 100 100 100 100 100 100 100 100 100 100 100 100 100 100 100 100 100 100 100 96 100 100 100 100 100 98 61 64 68 75 51 93 93
0 1 0 0 0 0 31 100 97 100 100 100 100 100 100 100 100 100 100 100 100 100 100 100 100 100 100 100 100 100 100 100 100 100 100 100 100 100 96 100 99 91 52
0 6 1 0 0 0 4 84 100 100 100 100 100 100 100 100 100 100 100 100 100 100 100 100 100 100 100 100 100 100 100 100 100 100 100 100 100 89 100 84 92 38 44
0 0 5 0 0 0 0 2 75 100 100 100 100 100 100 100 100 100 100 100 100 100 100 100 100 100 100 100 100 100 100 100 100 100 100 100 100 88 98 100 65 83 94
4 0 4 4 0 0 0 0 0 4 93 100 100 100 100 100 100 100 100 100 100 100 100 100 100 100 100 100 100 100 100 100 100 100 100 100 100 41 96 95 100 100 100
1 0 0 2 1 1 5 0 0 0 0 49 98 61 99 100 100 100 100 100 100 100 100 100 100 100 100 100 100 100 100 100 100 100 100 96 43 81 95 100 100 100 100
0 4 0 0 5 2 5 5 4 0 0 0 16 31 61 80 78 78 100 100 99 100 100 100 100 100 100 100 100 100 100 100 99 89 78 48 87 100 100 100 100 100 100
4 5 1 0 2 5 2 1 5 0 0 0 1 24 7 27 38 23 3 2 58 100 100 100 100 100 100 100 68 100 98 92 100 100 100 100 100 100 100 100 100 100 100
5 7 5 0 0 4 79 1 5 2 2 0 2 0 19 23 18 0 0 4 5 5 6 88 100 100 100 100 100 100 100 100 100 100 100 100 100 100 100 100 100 100 100
6 31 8 6 15 19 5 100 51 5 1 5 1 0 0 0 0 0 0 3 5 6 5 5 5 8 49 74 58 100 100 100 100 100 100 100 100 100 100 100 100 100 100
21 5 18 34 84 9 13 23 14 100 80 5 5 5 1 0 0 39 5 3 32 48 75 24 3 5 84 35 99 87 63 100 100 99 100 100 100 100 100 100 100 100 100
98 100 95 60 60 75 46 34 5 5 67 100 91 4 5 5 5 5 0 0 0 9 12 74 95 100 98 100 96 99 99 82 43 77 100 100 100 100 100 100 100 100 100
87 100 100 100 100 100 98 100 79 5 6 77 77 77 5 5 5 5 5 5 4 5 5 0 0 0 26 49 100 97 87 99 100 100 100 100 100 100 100 100 100 100 100
100 100 100 100 93 94 97 48 95 55 5 52 82 79 29 5 5 5 5 5 14 20 16 12 20 40 74 100 100 100 70 100 100 100 100 100 100 100 100 100 100 100 100
100 100 100 47 100 69 81 100 72 20 64 20 58 100 100 80 62 61 74 90 94 45 83 99 99 100 100 100 100 100 100 100 100 100 100 100 100 100 100 100 100 100 100
100 100 100 26 5 76 100 95 92 98 17 92 85 82 92 94 100 100 100 100 98 100 100 100 100 100 100 100 100 100 100 100 100 100 100 100 100 100 100 100 100 100 100
100 100 100 100 25 96 100 100 96 100 100 100 100 100 100 100 100 100 100 100 100 100 100 100 100 100 100 100 100 100 100 100 100 100 100 100 100 100 100 100 100 100 100
81 98 100 100 100 16 100 100 100 100 100 100 100 100 100 100 100 100 100 100 100 100 100 100 100 100 100 100 100 100 100 100 100 100 100 100 100 100 100 100 100 100 100
86 95 100 100 100 100 100 100 100 100 100 100 100 100 100 100 100 100 100 100 100 100 100 100 100 100 100 100 100 100 100 100 100 100 100 100 100 100 100 100 100 100 100
74 98 100 100 100 100 100 100 100 100 100 100 100 100 100 100 100 100 100 100 100 100 100 100 100 100 100 100 100 100 100 100 100 100 100 100 100 100 100 100 100 100 100
8 68 100 100 100 100 100 100 100 100 100 100 100 100 100 100 100 100 100 100 100 100 100 100 100 100 100 100 100 100 100 100 100 100 100 100 100 100 100 100 100 100 100
100 100 100 100 100 100 100 100 100 100 100 100 100 100 100 100 100 100 100 100 100 100 100 100 100 100 100 100 100 100 100 100 100 100 100 100 100 100 100 100 100 100 100
100 100 100 100 100 100 100 100 100 100 100 100 100 100 100 100 100 100 100 100 100 100 100 100 100 100 100 100 100 100 100 100 100 100 100 100 100 100 100 100 100 100 100

GFSMW_prec_cloud_057.txt.gz
Cloud_Cover
0 0 0 0 2 100 100 100 100 100 100 100 100 100 100 100 100 100 100 100 100 100 100 100 100 100 100 100 99 100 98 59 100 95 80 96 62 95 66 93 100 81 100
0 0 0 0 0 81 100 100 100 100 100 100 100 100 100 100 100 100 100 100 100 100 100 100 100 100 100 100 89 76 100 100 86 98 100 51 63 78 83 100 79 97 100
0 0 0 0 0 35 71 100 100 100 100 100 100 100 100 100 100 100 100 100 100 100 100 100 100 100 100 100 99 100 100 100 100 100 33 64 62 97 100 100 100 100 100
0 0 0 0 0 0 88 99 100 100 100 100 100 100 100 100 100 100 100 100 100 100 100 100 100 100 100 100 100 100 99 100 72 88 100 100 100 100 100 100 100 100 100
0 0 0 0 0 0 32 81 100 100 100 100 100 100 100 100 100 100 100 100 100 100 100 100 100 100 100 100 100 100 97 100 100 100 100 100 100 100 100 100 100 100 100
0 0 0 0 0 0 4 81 85 100 100 100 100 100 100 100 100 100 100 100 100 100 100 99 100 100 100 100 100 100 100 100 100 100 100 100 100 100 100 100 100 100 100
0 1 0 0 0 0 0 7 98 90 100 100 100 100 100 100 100 100 100 100 100 100 100 100 100 100 100 100 100 100 100 100 100 100 100 100 100 100 100 100 100 100 72
7 11 18 0 0 0 0 0 1 38 100 100 100 100 100 100 100 100 100 100 100 100 100 100 100 100 100 100 100 100 100 100 100 100 100 100 100 100 100 100 100 53 34
33 61 100 0 0 0 0 0 0 0 22 100 100 100 100 100 100 100 100 100 100 100 100 100 100 100 100 100 100 100 100 100 100 100 100 100 100 100 100 86 41 19 73
92 100 100 11 0 0 0 0 0 0 0 6 99 98 72 100 100 100 100 100 100 100 100 100 100 100 100 100 100 100 100 100 100 100 100 100 100 100 88 51 56 97 100
4 100 100 32 0 0 0 0 0 0 0 0 3 51 85 93 100 95 81 91 100 100 100 100 100 100 100 100 100 100 100 100 100 100 100 100 100 100 100 100 100 100 100
4 74 100 40 0 1 1 0 0 0 5 2 0 0 0 2 54 9 0 6 10 26 0 1 4 10 16 18 20 27 100 71 100 100 100 100 100 100 100 100 100 100 100
8 9 84 100 2 2 0 0 0 0 0 77 100 6 0 0 0 0 0 1 0 0 0 8 5 4 0 2 2 5 5 8 12 75 93 100 100 100 100 100 100 100 100
55 5 5 69 100 2 5 5 4 1 0 0 6 98 64 2 5 0 0 0 0 2 0 3 2 2 0 0 5 3 4 10 17 5 100 58 100 100 99 100 100 100 100
67 5 97 100 92 4 5 69 64 4 4 0 2 1 3 100 100 7 3 3 5 4 0 0 0 0 2 17 26 75 18 72 61 92 100 19 54 60 96 100 100 100 100
100 99 100 100 9 5 5 5 98 69 10 5 31 3 0 5 64 5 5 8 5 5 5 5 5 6 3 0 0 5 4 7 5 37 100 100 100 100 100 100 100 100 100
100 100 99 70 10 5 40 100 100 84 23 5 12 37 5 5 3 1 77 29 57 85 64 17 5 23 60 12 92 47 10 49 50 46 70 88 96 100 100 100 100 100 100
100 100 100 100 5 5 60 100 100 99 8 5 5 5 45 46 82 40 6 90 100 100 100 56 23 6 15 49 55 95 89 72 49 60 74 100 100 100 100 100 100 100 100
100 100 72 100 97 59 19 6 11 5 5 5 61 100 57 84 97 78 97 96 100 100 100 100 100 100 100 100 100 100 100 100 100 100 100 100 100 100 100 100 100 100 100
65 92 97 100 100 100 100 100 100 100 11 5 5 9 50 45 54 100 92 96 97 100 100 88 100 100 100 100 100 100 100 100 100 100 100 100 100 100 100 100 100 100 100
6 7 93 100 100 100 100 100 100 100 30 89 55 80 52 100 100 100 85 41 87 100 100 100 100 100 100 100 100 100 100 100 100 100 100 100 100 100 100 100 100 100 100
5 5 5 16 95 100 100 100 100 94 100 100 100 100 100 80 100 100 100 100 100 100 100 100 100 100 100 100 100 100 100 100 100 100 100 100 100 100 100 100 100 100 100
0 0 5 32 98 100 100 100 100 100 100 100 100 100 100 100 100 100 100 100 100 100 100 100 100 100 100 100 100 100 100 100 100 100 100 100 100 100 100 100 100 100 100
45 23 12 60 100 48 100 100 100 100 100 100 100 100 100 100 100 100 100 100 100 100 100 100 100 100 100 100 100 100 100 100 100 100 100 100 100 100 100 100 100 100 100
95 99 98 100 90 59 100 100 100 100 100 100 100 100 100 100 100 100 100 100 100 100 100 100 100 100 100 100 100 100 100 100 100 100 100 100 100 100 100 100 100 100 100
100 100 100 91 100 94 100 100 100 100 100 100 100 100 100 100 100 100 100 100 100 100 100 100 100 100 100 100 100 100 100 100 100 100 100 100 100 100 100 100 100 100 100

GFSMW_prec_cloud_060.txt.gz
Cloud_Cover
1 0 0 0 0 4 82 100 100 100 100 100 100 100 100 100 100 100 100 100 100 100 100 100 100 100 100 100 100 100 100 100 100 100 100 100 65 94 68 96 47 87 9
5 0 0 0 0 5 98 100 100 100 100 100 100 100 100 100 100 100 100 100 100 100 100 100 100 100 100 100 100 100 100 100 100 100 100 86 71 97 86 28 20 6 91
32 0 0 0 0 0 88 100 100 100 100 77 100 100 100 100 100 100 100 100 100 100 94 100 100 100 100 100 100 100 100 100 100 100 94 75 100 37 16 53 43 100 100
54 1 0 0 0 0 18 100 100 100 100 99 100 92 100 99 100 100 100 100 100 100 99 100 100 100 100 100 100 100 98 100 100 100 100 99 39 65 100 96 100 100 100
0 0 0 0 0 0 1 100 100 100 100 100 100 100 100 98 86 100 100 100 100 100 100 100 100 100 100 100 100 94 100 100 100 100 99 61 67 26 100 100 100 100 100
0 0 0 0 0 0 0 50 100 100 100 100 100 99 100 100 100 100 100 100 100 100 100 100 100 100 100 100 100 100 100 100 100 100 97 100 100 100 100 100 100 100 100
4 0 0 0 3 0 0 8 100 100 100 100 100 100 100 100 100 100 100 100 100 100 100 100 100 100 100 100 100 100 100 100 100 100 100 100 100 100 100 100 100 100 100
5 5 3 5 32 1 0 0 91 100 100 100 100 100 100 100 100 100 100 100 100 100 99 100 100 99 100 100 100 100 100 100 100 100 100 100 100 100 100 100 100 100 100
100 8 0 5 5 7 0 0 0 36 91 100 97 99 100 100 100 100 100 100 100 100 100 100 100 100 100 100 100 100 100 100 100 100 100 100 100 100 100 100 100 100 100
100 99 22 4 5 55 4 0 0 0 7 77 100 100 93 99 100 100 100 100 100 100 100 100 100 100 100 100 100 100 100 100 100 100 100 100 100 100 100 100 100 100 85
100 47 100 58 6 99 100 15 0 1 0 5 34 99 100 100 100 100 100 100 100 100 100 100 100 100 100 100 100 100 100 100 100 100 100 100 100 100 100 97 100 100 100
97 34 5 5 14 31 100 100 4 2 2 0 6 24 64 100 91 13 4 3 3 54 100 98 100 100 100 100 100 100 100 100 100 100 100 100 96 89 100 100 99 100 100
76 23 89 39 5 5 25 100 81 5 0 5 0 6 22 27 38 25 0 0 0 0 0 0 0 0 0 3 22 32 34 3 12 49 41 88 66 25 51 97 89 100 100
9 5 5 5 10 5 7 96 100 100 27 0 5 1 0 0 0 15 15 0 0 0 0 0 0 0 0 0 0 0 0 0 0 2 3 5 30 69 45 83 66 98 100
37 65 6 5 22 5 5 68 100 100 59 0 4 11 0 2 4 12 2 91 94 25 15 17 2 0 3 0 0 0 0 0 2 16 5 3 9 14 30 100 100 98 100
100 100 100 5 57 38 5 56 100 100 22 5 7 89 5 5 5 5 15 46 33 98 33 28 22 18 19 5 5 3 4 24 30 32 65 29 90 66 31 55 100 100 100
100 100 100 100 100 86 34 100 100 100 6 18 68 100 100 100 52 5 4 5 4 35 28 20 87 46 52 96 28 25 44 37 43 41 49 39 32 95 100 100 100 100 100
100 100 100 93 100 100 90 98 86 48 23 73 14 100 100 100 11 5 5 60 5 5 32 39 38 95 95 100 99 98 100 89 80 92 80 82 81 92 100 100 100 100 100
100 100 81 8 91 99 55 100 97 100 100 16 40 5 6 5 5 5 22 100 92 42 82 41 100 59 81 99 88 100 100 100 100 100 100 100 100 100 100 100 100 100 100
96 100 100 100 100 100 97 98 100 100 79 88 10 79 100 100 100 100 100 92 43 64 100 100 100 100 100 100 100 100 100 100 100 100 100 100 100 100 100 100 100 100 100
100 100 100 100 100 100 100 100 90 49 36 36 55 96 84 100 100 100 100 80 92 100 100 100 100 100 100 100 100 100 100 100 100 100 100 100 100 100 100 100 100 100 100
100 100 100 100 100 100 100 100 100 100 100 99 100 83 93 84 91 100 100 100 100 100 100 100 100 100 100 100 100 100 100 100 100 100 100 100 100 100 100 100 100 100 100
88 32 91 100 98 100 100 100 100 100 100 100 100 100 100 100 100 100 100 100 100 100 100 100 100 100 100 100 100 100 100 100 100 100 100 100 100 100 100 100 100 100 100
100 100 100 100 98 76 94 100 100 100 100 100 100 100 100 100 100 100 100 100 100 100 100 100 100 100 100 100 100 100 100 100 100 100 100 100 100 100 100 100 100 100 100
100 100 100 100 100 98 93 100 100 100 97 100 100 100 100 100 100 100 100 100 100 100 100 100 100 100 100 100 100 100 100 100 100 100 100 100 100 100 100 100 100 100 100
100 100 100 100 99 98 100 100 100 100 82 98 100 100 100 100 100 100 100 100 100 100 100 100 100 100 100 100 100 100 100 100 100 100 100 100 100 100 100 100 100 100 100

GFSMW_prec_cloud_063.txt.gz
Cloud_Cover
0 0 0 0 0 0 0 92 100 100 100 100 100 100 100 100 100 100 100 100 100 100 100 100 100 100 100 100 100 100 100 100 100 100 100 100 100 89 100 100 78 90 78
1 0 0 0 0 0 0 57 100 100 100 100 100 98 100 100 100 100 100 100 100 100 100 100 100 100 100 100 100 100 100 100 100 100 100 94 95 92 100 89 97 100 100
0 0 0 0 5 0 0 1 99 100 100 100 100 100 100 100 100 100 100 100 100 100 100 100 100 100 100 100 100 100 100 100 100 100 100 96 93 100 49 84 76 100 100
0 0 0 0 14 0 0 0 100 100 100 100 100 100 100 100 100 100 100 100 100 100 100 100 100 100 100 100 100 100 100 100 100 100 100 95 84 100 99 92 100 100 62
1 0 0 0 0 0 6 0 87 100 100 100 100 99 100 100 100 100 100 100 100 100 100 100 100 100 100 100 100 100 100 100 100 100 86 100 98 90 100 100 100 100 98
5 3 0 0 0 0 16 2 26 100 100 100 100 100 79 99 83 100 100 100 100 100 100 100 100 100 97 100 100 100 100 100 100 82 100 100 100 100 100 100 77 54 96
5 58 5 0 0 2 28 19 9 97 100 100 89 100 100 84 19 95 58 85 100 100 100 100 100 100 96 100 100 100 100 100 100 100 100 100 100 100 100 100 93 78 100
5 6 18 5 0 0 10 0 7 5 100 100 95 84 100 100 96 100 99 99 100 100 100 100 100 100 100 100 100 100 100 100 100 100 100 100 100 100 98 100 100 100 100
12 52 100 100 5 0 0 0 5 4 86 100 100 87 100 100 100 100 100 100 100 100 100 100 100 100 100 100 100 100 100 100 100 100 100 100 100 100 100 100 100 100 100
100 100 100 100 25 5 1 2 8 100 19 100 100 94 100 100 99 38 100 100 100 100 100 100 100 100 100 100 100 100 100 99 100 100 98 100 100 100 100 100 100 100 100
99 100 100 100 82 64 5 1 7 100 85 8 76 100 100 100 100 86 0 76 100 100 100 100 100 100 100 100 100 100 100 100 100 100 100 100 100 100 100 100 100 100 100
58 56 48 100 100 76 73 20 50 98 100 99 5 24 100 100 100 100 100 82 5 4 98 100 100 100 100 100 100 100 100 100 100 100 100 100 100 100 100 100 100 93 100
100 100 74 24 92 84 54 49 81 6 83 92 13 18 18 57 99 100 100 100 100 51 3 0 0 0 4 24 48 78 84 64 14 39 62 77 26 18 92 85 68 98 92
100 98 100 58 85 97 58 74 99 75 7 20 8 30 70 7 1 64 100 100 100 100 37 1 0 0 0 0 0 0 0 0 0 0 0 1 4 4 7 32 25 15 11
100 100 94 67 38 7 83 90 80 99 60 43 100 100 100 88 3 0 14 100 100 100 84 28 1 0 4 2 0 0 0 3 2 4 4 1 0 1 29 87 81 99 65
96 100 100 100 96 68 8 35 30 100 76 94 76 100 100 100 23 18 42 18 80 100 86 23 14 43 7 0 2 2 1 5 5 26 11 46 25 6 22 100 100 100 98
88 100 100 100 100 53 82 8 5 5 14 58 97 100 100 84 76 9 7 26 89 92 89 42 58 21 26 26 68 76 18 20 30 66 97 88 59 90 100 100 100 100 100
100 100 100 100 100 100 90 96 56 18 35 20 25 100 100 93 90 26 6 54 13 44 26 30 9 52 35 78 90 100 100 100 100 100 100 100 100 100 100 100 100 100 100
100 100 100 100 100 100 100 63 5 6 10 43 34 100 100 100 91 94 97 100 71 74 8 90 100 100 88 43 99 100 100 100 100 100 100 100 100 100 100 100 100 100 100
100 98 100 100 100 25 37 8 5 60 36 56 93 100 100 99 62 54 100 92 64 16 100 92 100 100 100 100 100 100 100 100 100 100 100 100 100 100 100 100 100 100 100
100 100 100 100 100 100 100 95 84 52 97 100 100 100 100 100 100 100 94 89 91 97 100 100 100 100 100 100 100 100 100 100 100 100 100 100 100 100 100 100 100 100 100
100 100 100 100 100 100 100 100 100 100 100 99 98 100 100 100 100 100 100 100 100 100 100 100 100 100 100 100 100 100 100 100 100 100 100 100 100 100 100 100 100 100 100
100 100 100 100 100 100 100 100 100 100 100 100 100 100 100 100 100 100 100 100 100 100 100 100 100 100 100 100 100 100 100 100 100 100 100 100 100 100 100 100 100 100 100
100 100 100 100 100 100 100 100 100 100 100 100 100 100 100 100 100 100 100 100 100 100 100 100 100 100 100 100 100 100 100 100 100 100 100 100 100 100 100 100 100 100 100
100 100 100 100 100 100 100 100 100 94 84 83 98 100 100 100 100 100 100 100 100 100 100 100 100 100 100 100 100 100 100 100 100 100 100 100 100 100 100 100 100 100 100
95 100 100 96 88 89 90 89 83 88 100 84 94 92 89 100 100 100 100 100 100 100 100 100 100 100 100 100 100 100 100 100 100 100 100 100 100 100 100 100 100 100 100

GFSMW_prec_cloud_066.txt.gz
Cloud_Cover
6 9 0 32 53 74 58 35 93 100 100 100 100 100 100 100 100 100 100 100 100 100 100 100 100 100 100 100 100 100 100 100 100 100 100 100 100 100 100 100 100 100 100
5 5 9 63 62 88 37 26 80 100 100 100 100 100 100 100 100 100 100 100 100 100 100 100 100 100 100 100 100 100 95 100 100 100 100 100 100 100 100 100 100 88 92
0 1 18 47 49 98 55 42 71 100 100 100 100 100 100 100 100 100 100 100 100 100 100 100 100 100 100 100 100 98 100 100 100 100 100 100 100 100 100 100 93 100 100
0 0 0 75 47 68 44 35 37 99 100 100 100 71 100 100 100 100 100 100 100 100 100 100 100 100 100 100 100 100 100 100 100 100 100 100 100 100 100 100 100 94 84
1 0 0 0 22 42 66 45 45 81 100 100 98 71 80 100 100 100 100 100 100 100 100 100 100 100 100 100 100 100 100 100 100 100 100 100 100 91 98 100 100 100 100
5 3 1 0 33 57 81 69 46 50 100 100 100 72 99 100 100 100 100 100 100 100 100 100 100 100 100 100 100 100 100 100 100 100 100 100 100 100 100 100 100 100 93
5 3 5 1 65 100 100 82 36 85 88 100 100 100 97 99 100 96 80 100 100 100 100 100 100 100 100 100 100 100 100 100 100 100 100 100 100 100 100 100 100 100 100
17 5 5 3 29 86 99 60 63 90 52 94 100 100 100 66 100 80 60 100 64 100 100 100 100 100 100 100 100 100 100 100 100 100 100 100 100 100 95 100 99 100 100
90 32 5 5 2 53 47 26 53 55 58 49 92 97 81 42 0 92 100 100 29 99 100 100 100 100 100 100 100 100 100 100 100 100 100 100 100 100 100 100 100 100 100
100 30 4 5 100 100 100 17 5 17 28 31 65 90 33 32 36 15 0 5 100 68 100 100 100 100 99 100 100 99 100 100 85 77 100 100 100 100 100 100 100 100 100
100 100 100 100 46 100 100 55 26 24 6 35 44 29 97 49 99 96 27 0 0 4 74 100 100 100 100 100 100 91 83 93 72 88 88 100 100 100 100 100 100 97 100
100 100 100 100 100 100 100 60 74 78 99 94 22 16 10 42 100 100 100 97 6 0 5 4 30 94 100 100 100 100 99 86 100 100 100 100 100 100 100 100 100 100 100
100 100 100 100 100 100 100 100 100 91 8 9 6 27 25 26 3 24 98 100 100 78 20 1 4 5 5 5 53 96 95 68 79 85 92 90 91 70 78 79 5 5 5
100 100 100 100 100 100 100 100 100 100 100 95 50 100 51 6 5 5 82 69 88 100 100 82 12 0 0 3 5 3 4 5 4 0 0 0 3 0 3 5 5 5 50
100 100 100 100 100 100 100 100 91 19 73 92 100 100 100 100 64 42 77 100 100 19 96 100 100 92 22 44 2 0 0 0 0 0 3 3 3 0 5 3 37 99 99
100 83 100 82 100 100 100 100 100 91 5 14 60 100 100 100 100 100 100 99 100 23 22 26 100 100 100 24 2 5 2 5 25 35 11 35 9 5 5 5 5 5 7
100 100 100 100 100 78 84 100 57 73 72 8 6 6 64 100 100 100 100 100 100 67 61 47 89 100 100 100 31 5 2 3 6 5 5 5 37 75 30 62 71 93 100
100 100 100 100 100 100 100 73 8 5 79 91 48 78 79 98 94 100 100 100 100 84 76 47 52 74 93 100 78 88 100 100 74 17 35 95 17 36 100 80 98 100 100
100 100 100 100 100 100 98 77 67 7 90 100 100 100 100 88 100 100 100 100 100 100 100 67 96 98 100 100 99 100 100 100 100 100 100 100 100 100 100 100 100 100 100
100 100 85 99 100 100 100 100 97 60 88 100 100 100 100 100 100 100 100 100 100 100 100 100 100 100 98 100 100 100 100 100 100 100 100 100 100 100 100 100 100 100 100
100 100 100 100 100 100 100 100 100 100 98 72 24 34 60 90 99 100 100 100 100 100 100 100 100 100 100 100 100 100 100 100 100 100 100 100 100 100 100 100 100 100 100
100 100 100 100 100 100 100 100 100 100 100 86 97 89 51 79 100 100 100 100 100 100 100 100 100 100 100 100 100 100 100 100 100 100 100 100 100 100 100 100 100 100 100
100 100 100 100 100 100 100 100 100 100 100 91 99 100 100 100 79 99 100 100 100 100 100 100 100 100 100 100 100 100 100 100 100 100 100 100 100 100 100 100 100 100 100
100 100 100 84 100 100 100 100 100 100 100 100 100 100 100 100 100 100 99 100 100 100 100 100 100 100 100 100 100 100 100 100 100 100 100 100 100 100 100 100 100 100 100
100 100 100 100 100 100 100 100 100 100 100 100 100 100 100 100 100 100 100 100 100 100 100 100 100 100 100 100 100 100 100 100 100 100 100 100 100 100 100 100 100 100 100
100 100 100 100 100 100 100 100 100 100 100 100 100 98 99 100 98 100 100 100 100 100 100 100 100 100 100 100 100 100 100 100 100 100 100 100 100 100 100 100 100 100 100

GFSMW_prec_cloud_069.txt.gz
Cloud_Cover
5 5 42 43 61 43 49 100 100 100 100 100 100 100 100 100 100 100 100 100 100 100 100 100 100 100 94 98 100 100 98 99 100 95 100 94 100 100 100 100 100 100 100
5 51 78 100 99 100 64 100 100 100 100 100 100 100 100 100 100 100 100 100 100 100 100 100 100 100 100 100 100 82 99 100 100 100 100 100 100 100 100 100 100 100 100
0 99 100 100 100 100 100 72 95 100 100 100 100 100 100 100 100 100 100 100 100 100 100 100 100 100 100 100 100 100 99 91 99 100 100 100 100 100 100 100 100 100 100
4 88 100 100 100 100 73 34 87 100 100 99 100 100 100 100 100 100 100 100 100 100 100 100 100 100 100 100 100 98 94 100 100 100 100 100 100 100 100 100 100 100 100
5 95 39 96 100 100 98 75 100 100 64 92 100 100 100 100 100 100 100 100 100 100 100 100 100 100 100 100 100 100 100 95 100 100 100 100 100 100 100 100 100 100 100
86 5 80 98 100 100 100 100 100 72 19 38 98 100 97 100 100 98 100 100 100 100 100 100 100 100 100 100 100 100 100 100 100 100 100 100 100 100 100 100 100 100 100
100 70 28 82 100 100 100 100 100 97 32 56 87 20 10 76 100 100 100 100 100 100 100 100 100 100 100 100 100 100 100 100 100 100 100 100 100 100 100 100 100 100 100
100 7 5 82 88 100 100 100 100 100 78 32 66 26 10 17 91 100 100 100 100 98 100 100 100 100 100 100 100 100 100 100 100 100 100 100 100 100 100 100 100 100 100
100 58 29 82 59 92 100 100 100 92 100 43 18 42 17 7 2 21 100 100 100 100 100 100 100 100 100 100 100 100 100 100 100 100 100 100 100 100 100 100 99 97 100
100 89 92 95 57 68 100 100 100 97 100 99 24 22 42 73 0 0 46 100 85 94 37 97 77 100 100 100 100 100 100 100 100 100 100 100 100 100 100 100 100 100 100
100 100 92 88 38 100 100 100 100 100 100 100 100 86 34 83 8 0 0 4 8 37 48 100 40 95 100 100 100 100 100 99 100 100 99 100 100 100 100 100 100 100 100
100 57 99 78 26 59 35 100 100 100 99 100 100 100 34 28 90 18 0 0 0 2 37 79 100 100 100 100 100 99 98 98 88 54 83 100 100 100 100 100 100 100 100
100 100 100 71 100 100 100 77 98 100 100 98 99 100 62 46 33 47 98 100 95 75 46 18 0 2 50 96 100 100 100 100 100 92 80 99 100 100 79 100 100 100 100
100 100 100 100 100 100 100 100 100 100 100 100 100 100 100 88 99 79 28 8 16 82 100 92 23 5 2 0 0 23 69 80 60 77 13 9 8 5 5 6 6 38 100
100 100 100 100 100 100 100 100 100 100 100 100 100 100 100 100 100 100 100 99 98 80 53 54 100 100 64 6 3 0 0 0 0 0 0 1 0 2 0 0 0 1 3
100 100 100 100 100 100 100 100 100 100 100 100 100 100 100 100 100 100 100 100 100 100 100 100 100 78 100 100 98 63 17 3 69 98 40 5 6 5 52 55 100 98 5
100 100 100 100 100 100 100 100 100 100 100 99 85 38 61 100 100 100 100 100 100 100 100 100 100 99 99 100 100 96 100 100 94 77 14 55 97 97 88 98 82 76 56
100 100 100 100 100 100 100 100 100 100 100 100 100 96 100 80 48 52 85 100 100 100 100 100 100 100 100 100 100 100 100 100 100 100 84 51 24 28 95 100 99 100 99
100 100 100 100 100 100 100 100 100 100 100 100 100 100 100 100 100 100 100 100 100 100 100 100 100 100 100 100 100 100 100 100 100 100 100 100 100 100 100 100 92 100 100
100 100 100 100 100 100 97 72 100 98 99 93 61 96 100 100 100 100 100 100 100 100 100 100 100 100 100 100 100 100 100 100 100 100 100 100 100 100 100 100 100 100 100
100 100 100 100 100 100 100 100 100 100 23 8 60 100 100 100 100 100 100 100 100 100 100 100 100 100 100 100 100 100 100 100 100 100 100 100 100 100 100 100 100 100 100
100 100 100 100 100 100 100 100 95 73 53 38 17 15 53 93 94 100 68 100 100 100 100 100 100 100 100 100 100 100 100 100 100 100 100 100 100 100 100 100 100 100 100
100 100 100 100 100 100 100 100 77 62 66 75 99 93 92 100 100 100 100 100 78 100 100 100 100 100 100 100 100 100 100 100 100 100 100 100 100 100 100 100 100 100 100
100 100 100 100 100 100 100 100 100 100 100 100 97 98 100 100 100 100 100 100 99 77 76 94 100 100 100 100 100 100 100 100 100 100 100 100 100 100 100 100 100 100 100
100 100 100 100 100 100 100 100 100 100 100 100 100 90 75 98 99 100 100 100 100 100 95 92 87 100 100 100 100 100 100 100 100 100 100 100 100 100 100 100 100 100 100
100 100 100 100 100 100 100 100 100 98 92 98 98 100 100 100 86 97 100 100 100 100 100 100 100 100 100 100 100 100 100 100 100 100 100 100 100 100 100 100 100 100 100

GFSMW_prec_cloud_072.txt.gz
Cloud_Cover
100 100 24 100 36 36 77 100 100 99 100 91 100 100 100 100 100 100 100 100 100 100 100 100 100 100 100 100 100 100 100 100 70 63 92 90 100 100 100 96 96 95 96
96 99 50 100 37 61 79 100 100 100 100 100 99 100 100 100 100 100 100 100 100 100 100 100 100 100 100 100 100 100 100 88 100 100 100 84 85 88 100 100 100 100 100
100 65 59 45 41 45 86 100 100 100 100 100 100 100 96 100 100 100 100 100 100 100 100 100 100 100 100 100 100 100 100 100 100 100 70 96 100 100 100 100 100 100 100
98 68 41 56 96 68 88 100 100 100 100 100 100 100 100 91 100 100 100 100 100 100 100 100 100 100 100 100 100 100 100 100 100 97 85 100 99 100 100 100 100 100 100
97 51 100 7 100 94 100 100 99 100 100 100 100 100 100 73 100 100 100 100 100 100 100 100 100 100 100 100 100 100 100 100 100 100 85 100 99 100 100 100 100 100 100
98 63 97 100 100 99 100 65 100 100 100 100 100 100 100 100 90 98 100 100 100 100 100 100 100 100 100 100 100 100 100 100 100 100 100 100 100 100 100 100 100 100 100
31 60 100 100 100 100 100 100 100 100 100 100 100 100 100 100 100 100 92 100 100 100 100 100 100 100 100 100 100 100 100 100 100 100 100 100 100 100 100 100 100 100 100
24 85 100 100 74 100 100 100 100 100 100 78 70 100 100 98 93 100 99 100 100 100 100 100 100 100 100 100 100 100 100 100 100 100 100 100 100 100 100 100 100 100 100
100 5 19 30 77 100 100 100 100 100 100 76 12 33 55 99 100 100 100 100 100 100 100 100 100 100 100 100 100 100 100 100 100 100 100 100 100 100 100 100 100 100 100
100 96 84 98 100 100 100 100 100 100 79 98 11 9 10 54 98 100 100 100 100 100 100 100 100 100 100 100 100 100 100 100 100 100 100 100 100 100 100 100 100 100 100
99 75 100 100 100 100 100 100 100 100 100 100 99 18 16 22 15 34 48 100 100 100 100 100 94 100 86 100 100 100 100 100 100 100 100 100 100 100 100 100 100 100 100
100 100 100 100 100 100 100 100 100 100 100 100 100 100 98 21 17 2 0 12 95 100 100 100 71 26 68 100 100 100 100 100 100 100 100 100 100 100 100 100 100 100 100
100 100 100 100 100 100 100 100 100 100 100 100 100 100 100 99 12 5 0 1 1 0 21 45 89 100 60 48 26 47 94 100 28 27 35 19 55 63 93 100 98 64 72
100 100 100 100 100 100 100 100 100 100 100 100 100 100 100 100 100 100 95 46 14 1 0 18 40 76 98 100 67 16 0 1 23 81 97 99 86 84 99 97 54 10 87
100 100 100 100 100 100 100 100 100 100 100 100 100 100 100 100 100 100 100 100 100 100 100 97 68 53 91 100 94 52 34 0 1 0 0 0 1 2 9 61 24 10 5
100 100 100 100 100 100 100 100 100 100 100 100 100 100 100 100 100 100 100 100 100 100 100 100 100 100 100 100 91 95 64 59 63 15 5 2 5 5 5 5 57 71 49
100 100 100 100 100 100 100 100 100 100 100 96 100 100 100 100 100 100 100 100 100 100 100 100 100 100 100 100 100 100 100 100 98 70 86 97 92 53 18 40 95 92 100
100 100 100 100 100 100 100 100 100 100 100 100 100 100 100 100 100 100 88 89 77 100 100 100 100 100 100 100 100 100 100 100 100 100 100 100 100 100 100 100 100 99 100
100 100 100 100 100 100 100 100 100 100 100 100 100 100 100 94 92 65 81 100 100 100 100 100 100 100 100 100 100 100 100 100 100 100 100 100 100 100 100 100 100 100 100
100 100 100 100 100 100 100 100 100 100 100 100 100 100 100 100 100 100 100 100 100 100 100 100 100 100 100 100 100 100 100 100 100 100 100 100 100 100 100 100 100 100 100
100 100 100 100 100 100 100 100 100 100 100 100 100 100 100 100 100 100 100 100 100 100 100 100 100 100 100 100 100 100 100 100 100 100 100 100 100 100 100 100 100 100 100
100 99 100 100 100 100 100 100 100 100 100 100 100 100 100 100 100 100 100 100 100 100 100 100 100 100 100 100 100 100 100 100 100 100 100 100 100 100 100 100 100 100 100
100 100 100 100 100 100 100 100 100 100 100 100 100 100 100 100 100 100 100 100 100 100 100 100 100 100 100 100 100 100 100 100 100 100 100 100 100 100 100 100 100 100 100
100 100 100 100 100 100 100 100 100 100 100 100 85 93 100 100 100 100 100 100 100 100 100 100 100 100 100 98 74 83 89 96 93 94 94 99 100 99 100 100 100 100 100
100 100 100 100 100 100 100 100 100 100 100 100 100 100 90 99 100 100 100 100 100 100 100 100 100 100 100 100 99 87 94 99 66 10 15 58 94 99 100 100 100 100 100
100 100 100 100 100 100 100 100 100 99 100 91 94 95 98 96 100 100 100 100 100 100 100 100 86 100 100 100 100 100 100 100 97 97 82 95 92 100 99 100 100 100 100

GFSMW_prec_cloud_075.txt.gz
Cloud_Cover
100 5 78 100 73 26 86 100 100 100 100 100 100 100 100 100 100 100 100 100 100 100 100 100 100 100 100 100 100 100 100 100 100 99 81 100 100 78 94 100 100 88 82
85 18 100 100 77 25 87 100 90 90 97 50 61 100 100 100 100 100 100 100 100 100 100 100 100 100 100 100 100 100 100 100 100 83 99 96 91 98 100 99 100 100 100
100 100 100 100 64 83 69 97 76 100 74 100 100 100 100 100 100 100 100 100 100 100 100 100 100 100 100 100 100 100 100 100 99 78 71 85 99 100 100 100 100 100 100
100 91 82 69 97 99 91 70 95 100 100 100 100 100 100 100 100 100 100 100 100 100 100 100 100 100 100 100 100 100 100 100 100 100 98 94 100 100 100 98 100 100 100
100 100 78 100 99 56 79 100 100 97 100 100 100 100 100 88 100 100 100 100 100 100 100 100 100 100 100 100 100 100 100 100 100 100 88 99 100 100 100 100 100 100 100
100 88 62 100 100 98 100 100 100 99 100 100 79 100 100 100 88 100 100 100 100 100 100 100 100 100 100 100 100 100 100 100 100 100 100 100 100 100 100 100 100 100 100
62 100 100 94 100 100 100 100 100 100 100 100 98 100 100 100 100 100 100 100 100 100 100 100 100 100 100 100 100 100 100 100 100 100 100 100 100 100 100 100 100 100 100
87 100 100 94 100 100 100 100 100 100 100 100 100 100 100 100 100 100 100 100 100 100 100 100 100 100 100 100 100 100 100 100 100 100 100 100 100 100 100 100 100 100 100
100 100 100 80 100 100 100 100 100 100 100 100 100 77 100 100 100 100 100 98 100 100 100 100 100 100 100 100 100 100 100 100 100 100 100 100 100 100 100 100 100 100 100
100 100 100 96 100 100 100 100 100 63 98 100 96 56 24 97 100 100 100 100 100 100 100 95 91 100 100 100 100 100 100 100 100 100 100 100 100 100 100 100 100 100 100
100 100 100 100 100 100 100 100 100 86 66 100 100 77 66 54 64 99 100 100 100 100 100 100 100 100 100 100 100 100 100 100 100 100 100 100 100 100 100 100 100 100 100
100 100 100 100 100 100 100 100 100 100 99 100 100 100 99 95 91 73 50 78 100 100 100 100 100 100 100 100 96 100 100 100 100 100 100 100 100 100 100 100 100 100 100
100 100 100 100 100 100 100 100 100 100 100 100 100 100 100 100 100 82 61 46 41 66 96 100 100 100 100 54 55 97 96 85 95 100 100 100 100 100 100 100 100 93 98
100 100 100 100 100 100 100 100 100 100 100 100 100 100 100 100 100 91 71 64 50 53 48 48 55 35 46 59 100 100 100 100 81 37 52 76 71 25 26 41 50 44 88
100 100 100 100 100 100 100 100 100 100 100 100 100 100 100 100 100 100 100 98 89 51 97 48 23 30 78 100 100 100 100 100 100 100 88 23 5 0 0 37 17 19 72
100 100 100 100 100 100 100 100 100 100 100 100 100 100 100 100 100 100 100 100 100 100 100 100 100 100 100 100 100 100 100 100 100 100 86 53 42 30 11 23 52 99 100
100 100 100 100 100 100 100 100 100 100 100 100 100 100 100 100 100 100 100 100 100 100 100 100 100 100 100 100 100 100 100 100 100 100 100 100 100 100 100 97 99 95 96
100 100 100 100 100 100 100 100 100 100 100 100 100 100 100 99 100 100 100 100 100 100 100 100 100 100 100 100 100 100 100 100 100 100 100 100 100 100 100 100 100 100 100
100 100 100 100 100 100 100 100 100 100 100 95 98 100 100 100 100 100 100 100 100 100 100 100 100 100 100 100 100 100 100 100 100 100 100 100 100 100 100 100 100 100 100
100 100 100 100 100 100 100 100 100 100 100 100 100 100 100 100 100 100 100 100 100 100 100 100 100 100 100 95 87 84 100 100 100 100 100 100 100 100 100 100 100 100 100
100 100 100 100 100 100 100 100 100 100 100 100 100 100 100 100 100 100 100 100 100 100 100 100 100 100 98 100 100 100 100 100 100 100 100 100 100 100 100 100 100 100 100
100 100 100 100 100 100 100 100 100 100 100 100 100 100 100 100 100 100 100 100 100 100 100 100 100 100 100 100 100 100 100 100 100 100 100 100 100 100 100 100 100 100 100
100 100 100 100 100 100 100 100 100 100 100 100 100 100 100 100 100 100 100 100 100 100 100 100 100 100 100 100 100 100 100 100 100 100 100 100 100 100 99 98 100 100 95
100 100 100 100 100 100 100 100 100 100 100 100 100 100 100 100 100 100 100 100 100 100 100 100 100 100 100 100 93 91 90 90 95 96 98 99 96 85 99 96 100 100 100
100 100 100 100 100 100 100 100 100 100 100 100 100 100 100 100 100 100 100 100 100 100 100 100 100 100 100 100 100 100 93 95 81 95 93 93 98 99 100 100 100 100 100
100 100 100 100 100 100 100 100 100 100 100 100 100 100 100 100 98 99 100 100 100 100 100 100 100 100 100 100 100 100 100 76 77 84 97 100 100 100 100 100 100 100 90

GFSMW_prec_cloud_078.txt.gz
Cloud_Cover
0 0 0 0 3 32 100 99 76 100 95 97 100 100 100 100 100 100 100 100 100 100 100 100 100 100 100 100 100 100 100 100 100 100 100 100 100 99 100 100 86 100 94
0 42 13 63 5 84 97 66 47 100 100 80 100 100 100 100 100 93 100 82 94 82 100 100 100 100 100 100 100 100 100 100 100 95 100 100 100 100 95 98 87 97 91
0 95 23 27 6 100 87 49 33 100 58 78 99 97 85 100 99 95 100 100 100 96 100 100 100 100 100 100 100 100 100 100 100 100 100 100 85 100 100 100 100 92 86
4 53 5 5 100 100 99 86 100 82 42 42 44 39 51 100 75 100 100 100 100 100 100 100 100 100 100 100 100 100 100 100 100 100 100 100 90 96 100 100 100 99 98
5 5 41 8 100 100 100 100 100 94 33 36 8 20 86 100 76 98 100 100 100 100 100 100 100 100 100 100 100 100 100 100 100 100 100 100 100 100 99 99 100 100 100
51 30 20 78 95 100 100 100 95 95 39 45 35 47 50 100 95 100 100 100 100 100 100 100 100 100 100 100 100 100 100 100 100 100 100 100 100 100 100 100 100 100 100
95 65 74 99 100 100 100 100 70 100 99 32 27 35 68 68 97 73 100 100 100 100 100 100 100 100 100 100 100 100 100 100 100 100 100 100 100 100 100 100 100 100 100
89 100 21 100 100 100 100 100 70 100 100 44 15 80 42 66 100 100 100 100 100 100 100 100 100 100 100 100 100 100 100 100 100 100 100 100 100 100 100 100 100 100 100
74 100 63 100 100 100 100 100 100 100 100 99 33 63 74 80 100 100 100 100 100 100 100 100 100 100 100 100 100 100 100 100 100 100 100 100 100 100 100 100 100 100 100
88 77 84 100 100 100 100 100 100 100 100 100 78 100 100 78 98 100 100 100 100 100 100 100 100 100 100 100 100 100 100 100 100 100 100 100 100 100 100 100 100 100 100
100 80 100 100 100 100 100 100 100 100 100 100 100 100 100 88 100 100 99 86 100 100 100 100 100 100 100 100 100 100 100 100 100 100 100 100 100 100 100 100 100 100 100
100 100 100 100 100 100 100 100 100 100 77 100 100 100 100 97 100 100 100 100 100 100 100 100 93 90 100 100 100 100 100 100 100 100 100 100 100 100 100 100 100 100 100
100 100 100 100 100 100 100 100 100 100 100 100 100 100 100 98 100 75 96 100 100 100 100 100 100 100 100 100 100 100 100 100 100 100 94 100 100 100 100 100 100 100 100
100 100 100 100 100 100 100 100 100 100 100 100 100 100 100 100 100 100 60 73 98 100 100 100 100 100 100 100 100 100 100 81 100 100 75 91 66 76 74 98 77 68 84
100 100 100 100 100 100 100 100 100 100 100 100 100 100 100 100 100 100 100 100 99 98 100 100 100 100 100 100 100 100 100 100 100 100 100 100 98 93 57 72 70 70 94
100 100 100 100 100 100 100 100 100 100 100 100 100 100 100 100 100 100 100 100 100 100 100 100 100 100 100 100 100 100 100 100 100 100 100 100 100 100 100 100 100 100 98
100 100 100 100 100 100 100 100 100 100 100 100 100 100 100 100 100 100 100 100 100 100 100 100 100 100 100 100 100 100 100 100 100 100 100 100 100 100 100 100 100 100 100
100 100 100 100 100 100 100 100 100 100 100 100 100 100 100 100 100 100 100 100 100 100 100 100 100 100 100 100 100 100 100 100 100 100 100 100 100 100 100 100 100 100 100
100 100 100 100 100 100 100 100 100 100 100 100 100 100 100 100 100 100 100 100 100 100 100 100 100 100 100 100 100 100 100 100 100 100 100 100 100 100 100 100 100 100 100
100 100 100 100 100 100 100 100 100 100 100 100 100 100 100 100 100 100 100 100 100 100 100 100 99 96 82 100 100 100 100 100 100 100 100 100 100 89 100 100 100 100 100
100 100 100 100 100 100 100 100 100 100 100 100 100 100 100 100 100 100 100 100 100 100 100 100 100 80 100 99 99 100 100 99 100 100 100 100 100 97 95 99 100 100 100
100 100 100 100 100 100 100 100 100 100 100 100 100 100 100 100 100 100 100 100 100 100 100 100 100 100 100 94 90 100 98 100 100 100 100 100 100 100 100 92 88 90 97
100 100 100 100 100 100 100 100 100 100 100 100 100 100 100 100 100 100 100 100 100 100 100 100 100 100 100 100 100 100 100 100 100 100 100 100 100 100 100 100 100 99 100
100 100 100 100 100 100 100 100 100 100 100 100 100 100 100 100 100 100 100 100 100 100 100 100 100 100 100 100 100 100 100 100 100 100 100 100 100 100 100 100 100 100 100
100 100 100 100 100 100 100 100 100 100 100 100 100 100 100 100 100 100 100 100 100 100 100 100 100 100 100 100 100 100 99 100 100 100 100 100 100 100 100 100 96 97 99
100 100 100 100 100 100 100 100 100 100 100 100 100 100 100 100 100 100 100 100 100 100 100 100 100 100 100 100 100 100 98 94 93 100 100 100 99 93 82 66 44 12 10

GFSMW_prec_cloud_081.txt.gz
Cloud_Cover
100 100 9 0 0 0 0 0 20 27 17 1 53 100 94 100 100 97 99 85 89 74 87 100 100 100 100 100 100 100 100 100 100 100 100 100 100 100 99 69 97 100 100
100 97 4 0 0 0 0 0 26 40 9 34 91 100 70 49 57 92 89 92 64 94 52 87 100 100 100 100 100 100 100 100 100 100 100 99 99 99 79 98 100 100 96
85 11 2 0 0 2 0 0 54 99 7 78 100 100 41 70 95 100 74 99 55 71 70 100 100 100 100 100 100 100 100 100 100 100 100 100 96 81 100 100 100 99 100
75 2 0 0 5 0 0 4 100 40 31 98 100 86 92 63 76 72 58 46 100 100 100 100 100 100 100 100 100 100 100 100 100 100 100 100 100 100 100 100 100 96 70
4 0 0 0 5 0 0 99 100 89 100 100 100 31 5 86 64 91 64 100 98 100 92 100 100 100 100 100 100 100 100 100 100 100 100 100 100 100 100 99 100 100 99
2 1 0 0 0 0 27 100 93 100 100 100 35 6 13 53 67 100 88 100 100 100 100 100 100 100 100 100 100 100 100 100 100 100 100 100 100 100 100 100 100 100 98
3 2 1 5 0 39 96 100 100 100 100 100 16 5 10 97 23 72 74 100 100 100 100 100 100 100 100 100 100 100 100 100 100 100 100 100 100 100 100 100 100 100 100
93 6 4 2 1 94 100 100 100 100 100 87 6 4 8 100 100 100 89 100 100 100 100 100 100 100 100 100 100 100 100 100 100 100 100 100 100 100 100 100 100 100 100
6 0 4 0 98 97 100 100 100 100 100 61 16 8 52 100 100 71 36 100 100 100 97 98 100 100 100 100 100 100 100 100 100 100 100 100 100 100 100 100 100 100 100
36 9 12 35 100 93 100 100 100 100 100 65 38 36 89 98 81 80 94 100 100 100 99 100 100 100 100 100 100 100 100 100 100 100 100 100 100 100 100 100 100 100 100
100 95 93 100 94 100 100 100 100 100 100 95 67 100 100 100 84 84 81 100 100 100 100 100 100 100 100 100 100 100 100 100 100 100 100 100 100 100 100 100 100 100 100
100 100 100 100 100 100 100 100 100 100 100 100 98 100 100 100 88 100 100 77 100 100 100 100 100 100 100 100 100 100 100 100 100 100 100 100 100 100 100 100 100 100 100
100 100 100 100 100 100 100 100 100 100 100 100 100 100 100 97 20 78 56 84 100 100 100 100 100 100 100 100 100 100 100 100 100 100 100 100 100 100 100 100 100 100 100
100 100 100 100 100 100 100 100 100 100 100 100 100 100 100 100 99 100 100 100 100 100 100 100 100 100 100 100 100 100 100 100 100 99 100 100 100 94 80 100 100 75 58
100 100 100 100 100 100 100 100 100 100 100 100 100 100 100 100 99 85 70 100 100 100 100 100 100 100 100 100 100 100 100 100 100 100 100 100 92 96 74 99 58 100 100
100 100 100 100 100 100 100 100 100 100 100 100 100 100 100 100 100 100 100 100 100 100 100 100 100 100 100 100 100 79 98 100 95 100 100 100 100 92 95 86 93 100 100
100 100 100 100 100 100 100 100 100 100 100 100 100 100 100 100 100 100 100 100 100 100 100 100 100 100 100 100 100 100 100 100 100 100 100 100 100 100 100 100 100 100 100
100 100 100 100 100 100 100 100 100 100 100 100 100 100 100 100 100 100 100 100 100 100 100 100 100 100 100 100 100 100 100 100 100 100 100 100 100 100 100 100 100 100 100
100 100 100 100 100 100 100 100 100 100 100 100 100 100 100 100 100 100 100 100 100 100 100 100 100 100 100 100 100 100 100 100 100 100 100 100 100 100 100 88 100 100 100
100 100 100 100 100 100 100 100 100 100 100 100 100 100 100 100 100 100 100 100 100 100 100 100 100 99 100 100 95 100 100 100 100 100 100 98 100 100 98 100 100 100 100
100 100 100 100 100 100 100 100 100 100 100 100 100 100 100 100 100 100 100 100 100 100 100 100 100 100 100 100 100 100 100 100 100 100 100 100 100 100 100 100 100 97 100
100 100 100 100 100 100 100 100 100 100 100 100 100 100 100 100 100 100 100 100 100 100 100 100 100 100 100 100 100 100 100 100 100 100 100 100 100 100 100 100 100 100 100
100 100 100 100 100 100 100 100 100 100 100 100 100 100 100 100 100 100 100 100 100 100 100 100 100 100 100 100 100 100 100 100 100 100 100 100 100 100 100 100 100 100 100
100 100 100 100 100 100 100 100 100 100 100 100 100 100 100 100 100 100 100 100 100 100 100 100 100 100 100 100 100 100 100 100 100 100 100 100 100 100 100 100 100 100 100
100 100 100 100 100 100 100 100 100 100 100 100 100 100 100 100 100 100 100 100 100 100 100 100 100 100 100 100 98 100 100 100 100 100 100 100 100 100 90 94 55 72 84
100 100 100 100 100 100 100 100 100 100 100 100 100 100 100 100 100 100 100 100 100 100 100 100 100 100 100 100 100 100 100 100 100 100 100 100 100 98 99 87 92 61 48

GFSMW_prec_cloud_084.txt.gz
Cloud_Cover
100 100 100 100 100 100 99 100 79 18 0 36 5 44 74 100 52 95 100 96 15 9 33 62 57 100 100 100 100 100 100 100 100 100 100 100 100 100 100 100 100 100 100
100 100 100 100 99 100 84 100 58 4 8 23 5 2 0 3 18 60 93 100 39 85 54 65 96 100 100 100 100 100 100 100 100 100 100 100 100 100 100 100 100 98 69
100 100 100 100 73 100 97 63 6 0 6 5 4 37 17 15 100 100 50 20 96 100 37 99 100 100 97 100 100 100 100 100 100 100 100 100 100 100 99 100 100 100 66
100 100 100 100 100 26 1 0 0 0 26 5 79 7 5 37 84 99 12 20 50 45 35 98 100 82 100 100 100 100 100 100 100 100 100 100 99 99 100 100 100 90 100
100 100 100 93 8 3 0 0 0 0 12 100 88 5 54 100 75 6 28 100 99 50 59 92 99 100 100 100 100 100 100 100 100 100 100 100 100 100 98 91 98 100 100
100 100 100 26 81 0 0 0 0 0 98 100 56 92 100 100 5 44 100 100 100 100 100 92 100 100 100 100 100 100 100 100 100 100 100 100 100 100 100 100 100 100 100
100 100 98 91 87 4 0 0 1 27 100 70 72 100 100 86 21 88 98 100 100 100 100 100 100 100 100 100 100 100 100 100 100 100 100 100 100 100 100 100 100 95 76
100 100 98 62 99 4 0 0 3 80 100 69 100 100 100 2 1 28 45 47 98 100 100 100 100 100 100 100 100 100 100 100 100 100 100 100 100 100 100 100 100 100 100
100 100 19 5 100 28 1 0 3 87 65 100 100 100 26 7 16 100 100 15 83 100 100 100 100 100 100 100 100 100 100 100 100 100 100 100 100 100 100 100 100 100 100
100 64 100 86 13 69 12 0 12 100 100 100 100 98 46 96 100 100 22 75 89 100 100 100 100 100 100 100 100 100 100 100 100 100 100 100 100 100 100 94 100 100 100
100 100 100 100 100 91 21 100 99 100 100 100 100 93 98 100 100 100 96 100 100 100 100 100 100 100 100 100 100 100 100 100 100 100 100 100 100 100 100 100 100 100 100
100 100 100 100 100 100 96 100 100 100 100 100 100 84 100 100 100 100 100 100 100 100 100 100 100 100 100 100 100 100 100 100 100 100 100 100 100 100 100 100 100 100 100
100 100 100 100 100 100 100 100 100 100 100 100 100 100 100 100 100 100 100 100 100 100 100 100 100 100 100 100 100 100 100 100 100 100 100 100 100 100 100 100 100 100 100
100 100 100 100 100 100 100 100 100 100 100 100 100 100 100 100 100 100 100 100 100 100 100 100 100 100 100 100 100 100 100 100 100 100 100 100 100 100 100 100 100 76 100
100 100 100 100 100 100 100 100 100 100 100 100 100 100 100 100 100 100 100 100 100 100 100 100 100 100 100 100 100 100 100 100 100 100 100 100 100 100 100 100 100 100 100
100 100 100 100 100 100 100 100 100 100 100 100 100 100 100 100 100 100 100 100 100 100 100 100 100 100 100 100 100 100 100 100 100 100 100 100 100 100 100 100 100 100 100
100 100 100 100 100 100 100 100 100 100 100 100 100 100 100 100 100 100 100 100 100 100 100 100 100 100 100 100 100 100 100 100 100 100 100 100 100 100 100 100 100 100 100
100 100 100 100 100 100 100 100 100 100 100 100 100 100 100 100 100 100 100 100 100 100 100 100 100 100 100 100 100 100 100 100 100 100 100 100 100 100 100 100 100 100 100
100 100 100 100 100 100 100 100 100 100 100 100 100 100 100 100 100 100 100 100 100 100 100 100 100 100 100 100 100 100 100 100 100 100 100 100 100 100 100 100 100 100 100
100 100 100 100 100 100 100 100 100 100 100 100 100 100 100 100 100 100 100 100 100 100 100 100 100 100 100 100 100 90 100 100 100 100 100 100 100 100 100 99 100 100 100
100 100 100 100 100 100 100 100 100 100 100 100 100 100 100 100 100 100 100 100 100 100 100 100 100 100 100 100 100 100 100 100 100 100 100 100 100 100 95 64 68 74 100
100 100 100 100 100 100 100 100 100 100 100 100 100 100 100 100 100 100 100 100 100 100 100 100 100 100 100 100 100 100 100 100 100 100 100 100 100 100 100 100 100 100 100
100 100 100 100 100 100 100 100 100 100 100 100 100 100 100 100 100 100 100 100 100 100 100 100 100 100 100 100 100 100 100 99 100 100 100 100 100 100 100 100 100 98 100
100 100 100 100 100 100 100 100 100 100 100 100 100 100 100 100 100 100 100 100 100 100 100 100 100 100 100 100 100 100 100 100 100 100 100 100 100 100 95 58 67 77 95
100 100 100 100 100 100 100 100 100 100 100 100 100 100 100 100 100 100 100 100 100 100 100 100 100 100 100 100 100 100 100 100 100 100 100 100 100 91 73 78 74 86 40
100 100 100 100 100 100 100 100 100 100 100 100 100 100 100 100 100 100 100 100 100 100 100 100 100 100 100 100 100 100 100 100 100 100 100 100 100 100 100 100 100 100 100

GFSMW_prec_cloud_087.txt.gz
Cloud_Cover
96 100 100 35 100 100 100 100 100 100 100 100 88 91 100 100 80 32 0 0 8 27 55 93 100 99 100 100 100 100 100 100 100 100 100 100 100 100 100 100 90 72 98
96 70 83 100 100 100 100 100 100 100 100 92 52 100 95 100 50 20 2 0 9 30 48 91 100 94 74 100 100 100 100 100 100 100 100 100 100 100 100 100 100 100 100
100 98 100 100 100 100 100 100 100 93 100 32 85 46 3 19 39 16 2 14 36 18 50 90 100 89 85 100 100 100 100 100 100 100 100 100 100 100 100 100 100 100 100
100 100 100 100 100 100 100 100 100 100 100 100 54 29 27 76 33 0 6 16 23 30 69 93 91 92 96 95 100 99 100 100 100 100 100 100 100 100 100 100 100 100 100
98 93 100 98 100 100 100 100 100 58 8 5 5 5 5 95 25 5 97 23 33 50 59 79 100 100 100 86 98 100 100 100 100 100 100 100 100 100 100 100 100 100 95
90 100 95 100 100 87 18 100 100 100 73 2 1 78 50 45 9 5 22 46 95 91 61 80 89 81 100 100 98 100 100 100 100 100 100 100 100 100 100 100 100 100 99
100 100 100 100 100 100 100 100 100 65 2 4 3 62 82 74 6 5 39 93 100 100 100 95 100 100 100 100 100 100 100 100 100 100 100 100 100 100 100 100 100 100 100
100 100 100 100 91 42 93 22 4 15 48 6 60 31 5 94 24 35 5 68 73 96 100 74 100 100 100 100 100 100 100 100 100 100 100 100 100 100 100 100 100 100 100
100 100 100 100 100 89 84 49 100 58 24 100 75 100 88 100 99 5 8 44 93 100 97 100 100 100 100 100 100 100 100 100 100 100 100 100 100 100 100 100 100 100 95
100 100 100 100 100 94 100 100 100 100 96 100 94 100 100 100 82 26 100 90 70 100 100 100 100 100 100 100 100 100 100 100 100 100 100 100 100 100 100 100 100 100 100
100 100 100 100 100 100 100 100 100 100 100 85 100 100 100 100 100 100 100 49 48 96 100 98 100 100 100 100 100 100 100 100 100 100 100 100 100 100 100 100 100 97 100
100 100 100 100 100 100 100 100 100 100 100 100 100 100 100 100 100 100 100 100 100 100 100 100 100 100 100 100 100 100 100 100 100 100 100 100 100 100 100 100 100 100 100
100 100 100 100 100 100 100 100 100 100 100 100 100 100 100 100 100 100 100 100 100 100 100 100 100 100 100 100 100 100 100 100 100 100 100 100 100 100 100 100 100 100 100
100 100 100 100 100 100 100 100 100 100 100 100 100 100 100 100 100 100 100 100 100 100 100 100 100 100 100 100 100 100 100 100 100 100 100 100 100 100 100 100 100 100 100
100 100 100 100 100 100 100 100 100 100 100 100 100 100 100 100 100 100 100 100 100 100 100 100 100 100 100 100 100 100 100 100 100 100 100 100 100 100 100 100 100 100 99
100 100 100 100 100 100 100 100 100 100 100 100 100 100 100 100 100 100 100 100 100 100 100 100 100 100 100 100 100 100 100 100 100 100 100 100 100 100 100 100 100 100 100
100 100 100 100 100 100 100 100 100 100 100 100 100 100 100 100 100 100 100 100 100 100 100 100 100 100 100 100 100 100 100 100 100 100 100 100 100 100 100 100 100 100 100
100 100 100 100 100 100 100 100 100 100 100 100 100 100 100 100 100 100 100 100 100 100 100 100 100 100 100 100 100 100 100 100 100 100 100 100 100 100 100 100 100 100 100
100 100 100 100 100 100 100 100 100 100 100 100 100 100 100 100 100 100 100 100 100 100 100 100 100 100 100 100 100 100 100 100 100 100 100 100 100 100 100 100 100 100 100
100 100 100 100 100 100 100 100 100 100 100 100 100 100 100 100 100 100 100 100 100 100 100 100 100 100 100 100 100 100 100 100 100 100 100 100 100 100 100 100 100 100 100
100 100 100 100 100 100 100 100 100 100 100 100 100 100 100 100 100 100 100 100 100 100 100 100 100 100 100 100 100 100 100 100 100 100 100 100 100 100 98 92 99 83 97
100 100 100 100 100 100 100 100 100 100 100 100 100 100 100 100 100 100 100 100 100 100 100 100 100 100 100 100 100 100 100 100 100 100 100 100 100 100 99 100 99 99 75
100 97 100 100 100 100 100 100 100 100 100 100 100 100 100 100 100 100 100 100 100 100 100 100 100 100 100 100 100 100 100 100 99 100 100 98 100 100 100 100 100 100 100
100 100 100 91 100 100 100 100 100 100 100 100 100 100 100 100 100 100 100 100 100 100 100 100 100 100 100 100 100 100 100 100 100 100 100 100 100 100 100 100 100 100 100
100 100 100 100 100 100 100 100 100 100 100 100 100 100 100 100 100 100 100 100 100 100 100 100 100 100 100 100 100 100 100 100 100 100 100 100 100 100 100 100 100 100 100
100 100 100 100 100 100 100 100 100 100 100 100 100 100 100 100 100 100 100 100 100 100 100 100 100 100 100 100 100 100 100 100 100 100 100 100 100 100 100 100 100 100 100

GFSMW_prec_cloud_090.txt.gz
Cloud_Cover
96 71 34 98 32 98 100 5 5 78 100 100 100 100 100 97 100 100 69 5 5 4 73 54 86 100 100 100 100 100 100 100 100 100 100 100 100 100 100 100 97 100 100
10 100 100 99 98 98 99 21 90 100 100 100 100 100 89 21 78 65 76 6 8 16 24 23 87 100 100 100 100 100 100 100 100 100 100 100 100 100 100 100 100 100 100
70 100 100 100 99 31 8 45 100 100 86 41 100 100 15 47 67 98 50 22 7 22 34 35 87 100 100 100 100 100 100 100 100 100 100 100 100 100 100 100 100 100 100
100 83 91 9 10 1 10 100 100 100 71 100 100 54 17 96 97 89 67 15 13 45 76 92 95 73 100 100 100 100 100 100 100 100 100 100 100 100 100 100 100 100 100
92 100 49 5 100 10 96 100 100 100 100 90 99 100 100 100 70 60 53 16 28 42 72 100 100 100 97 100 100 100 60 100 100 100 100 100 100 100 100 100 100 100 100
100 100 100 7 26 100 100 52 100 100 100 100 100 63 100 100 69 94 44 70 67 69 98 100 100 100 100 100 100 100 91 82 100 100 100 100 100 100 100 100 100 100 100
100 100 100 100 100 100 100 100 100 100 100 100 77 74 48 25 68 82 34 100 100 100 100 98 100 100 96 100 100 100 100 100 100 100 100 100 100 100 100 100 100 100 100
100 100 100 100 100 100 100 100 100 100 100 100 100 100 99 32 94 63 38 100 76 71 100 100 100 100 100 100 100 100 100 100 100 100 100 100 100 100 100 100 100 100 100
100 100 100 100 100 100 100 94 100 100 100 100 100 100 54 23 100 22 21 75 100 100 86 70 100 100 100 100 100 100 100 100 100 100 100 100 100 100 100 100 100 100 100
100 100 100 100 100 100 100 100 100 100 100 100 100 100 56 95 89 5 41 100 100 100 100 100 98 100 98 100 100 100 100 100 100 100 100 100 100 100 100 100 100 100 100
100 100 100 100 100 100 100 100 100 100 100 100 100 97 51 46 29 66 99 100 100 83 96 100 100 100 100 100 100 100 100 100 100 100 100 100 100 100 100 100 100 100 100
100 100 100 100 100 100 100 100 100 100 100 100 100 100 100 100 100 79 100 100 100 100 100 100 100 100 100 100 100 100 100 100 100 100 100 100 100 100 100 100 100 100 100
100 100 100 100 100 100 100 100 100 100 100 100 100 100 100 100 100 100 100 100 100 100 100 100 100 100 100 100 100 100 100 100 100 100 100 100 100 100 100 100 100 100 100
100 100 100 100 100 100 100 100 100 100 100 100 100 100 100 100 100 100 100 100 100 100 100 100 100 100 100 100 100 100 100 100 100 100 100 100 100 100 100 100 100 100 100
100 100 100 100 100 100 100 100 100 100 100 100 100 100 100 100 100 100 100 100 100 100 100 100 100 100 100 100 100 100 100 100 100 100 100 100 100 100 100 100 100 100 100
100 100 100 100 100 100 100 100 100 100 100 100 100 100 100 100 100 100 100 100 100 100 100 100 100 100 100 100 100 100 100 100 100 100 100 100 100 100 100 100 100 100 99
100 100 100 100 100 100 100 100 100 100 100 100 100 100 100 100 100 100 100 100 100 100 100 100 100 100 100 100 100 100 100 100 100 100 100 100 100 100 100 100 100 100 100
100 100 100 100 100 100 100 100 100 100 100 100 100 100 100 100 100 100 100 100 100 100 100 100 100 100 100 100 100 100 100 100 100 100 100 100 100 100 100 100 100 100 100
100 100 100 100 100 100 100 100 100 100 100 100 100 100 100 100 100 100 100 100 100 100 100 100 100 100 100 100 100 100 100 100 100 100 100 100 100 100 100 100 100 100 100
100 100 100 100 100 100 100 100 100 100 100 100 100 100 100 100 100 100 100 100 100 100 100 100 100 100 100 100 100 100 100 100 100 100 100 100 100 100 100 100 100 100 100
100 100 100 100 100 100 100 100 100 100 100 100 100 100 100 100 100 100 100 100 100 100 100 100 100 100 100 100 100 100 100 100 100 100 100 100 100 100 100 100 100 81 90
82 100 100 100 100 100 100 100 100 100 100 100 100 100 100 100 100 100 100 100 100 100 100 100 100 100 100 100 100 100 100 100 100 100 100 100 100 100 100 100 98 88 91
85 96 100 100 100 100 100 100 100 100 100 100 100 100 100 100 100 100 100 100 100 100 100 100 100 100 100 100 100 100 100 100 100 100 100 100 100 100 100 98 100 100 100
100 90 100 100 100 100 100 100 97 99 100 100 100 100 100 100 100 100 100 100 100 100 100 100 100 100 100 100 100 100 100 100 100 100 100 100 100 100 100 100 100 100 100
100 100 100 100 100 100 100 100 100 100 100 100 100 100 100 100 100 100 100 100 100 100 100 100 100 100 100 100 100 100 100 100 100 100 100 100 100 100 100 100 100 100 100
100 100 100 100 100 100 100 100 100 100 100 100 100 100 100 100 100 100 100 100 100 100 100 100 100 100 100 100 100 100 100 100 100 100 100 100 100 100 100 100 100 100 100

GFSMW_prec_cloud_093.txt.gz
Cloud_Cover
0 0 0 0 5 6 70 100 81 100 83 100 100 98 61 72 100 100 100 100 100 100 100 100 100 100 100 100 100 100 100 100 100 100 100 100 100 100 100 100 100 100 98
0 0 0 0 6 73 100 47 100 100 100 100 100 31 18 98 100 100 100 99 54 92 99 100 100 100 100 100 100 100 100 100 100 100 100 100 100 100 100 100 100 100 100
0 0 0 28 21 38 97 70 100 100 100 100 100 57 76 100 100 100 100 100 82 65 90 74 100 100 100 100 100 100 100 100 100 100 100 100 100 100 100 100 100 100 100
2 9 95 100 43 100 100 46 100 100 100 100 98 20 89 87 100 100 100 100 86 63 48 88 90 100 100 100 100 100 100 100 100 100 100 100 100 100 100 100 100 100 100
7 30 100 100 100 80 56 100 100 78 100 75 19 29 94 100 100 100 100 100 84 86 100 100 100 100 100 100 100 100 100 100 100 100 100 100 100 100 100 100 100 100 100
100 99 76 96 100 100 100 100 100 100 100 100 93 99 100 100 100 100 100 98 100 100 100 100 89 86 100 100 100 100 100 100 100 100 100 100 100 100 100 100 100 100 100
100 100 100 100 100 100 100 100 100 100 100 100 99 100 100 100 100 100 100 100 100 100 100 100 100 100 100 99 100 100 100 100 100 86 100 100 100 100 100 100 100 100 100
100 100 100 100 100 100 100 100 100 100 100 100 100 100 100 100 100 100 100 100 100 94 94 100 100 100 100 100 100 100 100 100 96 100 100 100 100 100 100 100 100 100 100
100 100 100 100 100 100 100 100 100 100 100 100 100 100 100 100 99 100 100 100 100 100 100 100 100 100 100 100 100 100 100 100 100 100 100 100 100 100 100 100 100 100 100
99 100 100 100 100 100 100 100 100 100 100 100 100 100 100 100 100 96 52 91 56 78 100 100 97 100 100 100 100 100 100 100 100 100 100 100 100 100 100 100 100 100 100
100 100 100 100 100 100 100 100 100 100 100 100 100 100 100 100 100 64 35 36 67 100 99 100 81 100 93 100 98 100 100 100 100 100 100 100 100 100 100 100 100 100 100
100 100 100 100 100 100 100 100 100 100 100 100 100 100 100 100 100 93 63 40 38 35 92 100 100 100 100 100 100 100 100 100 100 100 100 100 100 100 100 100 100 100 100
100 100 100 100 100 100 100 100 100 100 100 100 100 100 100 100 100 100 93 87 68 58 98 100 100 100 100 100 100 100 100 100 100 100 100 100 100 100 100 100 100 100 100
100 100 100 100 100 100 100 100 100 100 100 100 100 100 100 100 100 100 100 100 100 100 100 100 100 100 100 100 100 100 100 100 100 100 100 100 100 100 100 100 100 100 100
100 100 100 100 100 100 100 100 100 100 100 100 100 100 100 100 100 100 100 100 100 100 100 100 100 100 100 100 100 100 100 100 100 100 100 100 100 100 100 100 100 100 100
100 100 100 100 100 100 100 100 100 100 100 100 100 100 100 100 100 100 100 100 100 100 100 100 100 100 100 100 100 100 100 100 100 100 100 100 100 100 100 100 100 100 100
100 100 100 100 100 100 100 100 100 100 100 100 100 100 100 100 100 100 100 100 100 100 100 100 100 100 100 100 100 100 100 100 100 100 100 100 100 100 100 100 100 100 100
100 100 100 100 100 100 100 100 100 100 100 100 100 100 100 100 100 100 100 100 100 100 100 100 100 100 100 100 100 100 100 100 100 100 100 100 100 100 100 100 100 100 100
100 100 100 100 100 100 100 100 100 100 100 100 100 100 100 100 100 100 100 100 100 100 100 100 100 100 100 100 100 100 100 100 100 100 100 100 100 100 100 100 100 100 100
100 100 100 100 100 100 100 100 100 100 100 100 100 100 100 100 100 100 100 100 100 100 100 100 100 100 100 100 100 100 100 100 100 100 100 100 100 100 100 100 100 100 100
100 99 100 100 100 100 100 100 100 100 100 100 100 100 100 100 100 100 100 100 100 100 100 100 100 100 100 100 100 100 100 100 100 100 100 100 100 100 100 100 100 100 100
97 72 99 100 100 100 100 100 100 100 100 100 100 100 100 100 100 100 100 100 100 100 100 100 100 100 100 100 100 100 100 100 100 100 100 100 100 100 100 100 100 100 100
89 65 78 100 100 100 100 100 100 90 100 100 94 100 100 100 100 93 100 100 100 100 100 100 100 100 100 100 100 100 100 100 100 100 100 100 100 100 100 100 100 100 100
100 89 67 79 98 100 100 100 100 100 100 100 100 100 95 95 94 99 100 100 100 100 100 100 100 100 100 100 100 100 100 100 100 100 100 100 100 100 100 100 100 100 100
88 84 100 100 100 99 100 100 98 100 100 100 100 100 99 99 100 100 100 100 100 100 100 100 100 100 100 100 100 100 100 100 100 100 100 100 100 100 100 100 100 100 100
100 87 100 94 100 100 100 100 100 100 100 100 100 100 100 100 100 93 100 100 100 100 100 100 100 100 100 100 100 100 100 100 100 100 100 100 100 100 100 100 100 100 100

GFSMW_prec_cloud_096.txt.gz
Cloud_Cover
5 1 0 5 97 24 0 0 5 2 49 89 100 100 100 100 100 100 100 100 100 100 100 100 100 100 100 100 100 100 100 100 100 100 100 100 100 100 100 100 100 100 100
0 0 5 4 0 0 0 0 0 1 30 8 99 100 100 100 100 100 100 100 100 100 100 100 100 100 100 100 100 100 100 100 100 100 100 100 100 100 100 100 100 100 100
0 2 1 0 0 0 0 0 6 0 28 65 100 81 81 98 100 100 100 100 100 100 100 100 100 100 100 100 100 100 100 100 100 100 100 100 100 100 100 100 100 100 100
2 0 0 0 0 29 43 0 14 92 100 78 100 100 30 75 100 100 97 100 100 100 100 100 100 100 85 100 100 100 100 100 100 100 100 100 100 100 100 100 100 100 100
0 1 47 76 97 89 100 58 100 100 100 100 100 100 85 100 100 60 100 100 100 100 100 100 100 100 100 100 100 100 100 100 100 100 100 100 100 100 100 100 100 100 100
31 98 100 100 100 100 100 92 100 100 100 100 100 100 13 100 91 90 99 100 100 100 100 100 100 100 100 100 93 100 100 100 100 100 100 100 100 100 100 100 100 100 100
9 98 99 100 100 100 100 100 100 100 75 100 100 99 94 99 63 90 100 100 100 100 100 100 100 100 100 100 90 91 100 100 100 100 100 100 100 100 100 100 100 100 100
84 93 100 100 100 100 100 100 100 100 100 100 100 100 100 100 100 100 100 100 100 100 100 100 100 100 100 82 100 100 100 100 100 100 100 100 100 100 100 100 100 100 100
98 100 100 100 100 100 100 100 100 100 100 100 100 100 100 100 100 100 100 100 100 100 100 100 100 100 49 100 100 96 100 100 100 100 100 100 100 100 100 100 100 100 100
100 100 100 100 100 100 100 100 100 100 100 100 100 100 100 100 100 100 100 100 100 100 100 100 100 100 100 100 100 100 100 100 100 100 100 100 100 100 100 100 100 100 100
100 100 100 100 100 100 100 100 100 100 100 100 100 100 100 100 100 100 100 100 100 100 100 100 100 100 100 100 100 100 100 100 100 100 100 100 100 100 100 100 100 100 100
100 100 100 100 100 100 100 100 100 100 100 100 100 100 100 100 100 100 100 100 89 66 96 100 100 100 100 100 100 100 100 100 100 100 100 100 100 100 100 100 100 100 100
100 100 100 100 100 100 100 100 100 100 100 100 100 100 100 100 100 100 100 100 100 55 66 83 100 100 100 96 100 100 100 100 100 100 100 100 100 100 100 100 100 100 100
100 100 100 100 100 100 100 100 100 100 100 100 100 100 100 100 100 100 100 100 100 100 100 100 100 100 100 100 100 100 100 100 100 100 100 100 100 100 100 100 100 100 100
99 100 100 100 100 100 100 100 100 100 100 100 100 100 100 100 100 100 100 100 100 100 100 100 100 100 100 100 100 100 100 100 100 100 100 100 100 100 100 100 100 100 100
100 100 100 100 100 100 100 100 100 100 100 100 100 100 100 100 100 100 100 100 100 100 100 100 100 100 100 100 100 100 100 100 100 100 100 100 100 100 100 100 100 100 100
100 100 100 100 100 100 100 100 100 100 100 100 100 100 100 100 100 100 100 100 100 100 100 100 100 100 100 100 100 100 100 100 100 100 100 100 100 100 100 100 100 100 100
100 100 100 100 100 100 100 100 100 100 100 100 100 100 100 100 100 100 100 100 100 100 100 100 100 100 100 100 100 100 100 100 100 100 100 100 100 100 100 100 100 100 100
100 100 100 100 100 100 100 100 100 100 100 100 100 100 100 100 100 100 100 100 100 100 100 100 100 100 100 100 100 100 100 100 100 100 100 100 100 100 100 100 100 100 100
100 97 99 100 100 100 100 100 100 100 100 100 100 100 100 100 100 100 100 100 100 100 100 100 100 100 100 100 100 100 100 100 100 100 100 100 100 100 100 100 100 100 100
100 100 100 100 100 100 100 100 100 100 100 100 100 100 100 100 100 100 100 100 100 100 100 100 100 100 100 100 100 100 100 100 100 100 100 100 100 100 100 100 100 100 100
100 100 100 100 100 100 100 100 100 100 100 100 100 100 100 100 100 100 100 100 100 100 100 100 100 100 100 100 100 100 100 100 100 100 100 100 100 100 100 100 100 100 100
100 100 100 98 96 99 100 100 100 100 100 100 100 100 100 100 100 100 100 100 100 100 100 100 100 100 100 100 100 100 100 100 100 100 100 100 100 100 100 100 100 100 100
100 100 94 99 100 100 100 100 89 98 100 100 100 100 100 100 100 100 100 100 100 100 100 100 100 100 100 100 100 100 100 100 100 100 100 100 100 100 100 100 100 100 100
100 94 98 100 100 100 100 96 92 81 88 100 100 100 100 100 100 100 100 100 100 100 100 100 100 91 100 100 100 100 100 100 100 100 100 100 100 100 100 100 100 100 100
93 82 88 79 98 90 92 97 82 81 87 98 100 100 100 100 100 99 95 100 100 91 97 100 100 98 94 100 100 100 100 100 100 100 100 100 100 100 100 100 100 100 100